2016 Cux-Wetter.de -Die Nutzung der Wetterdaten nur mit ausdrcklicher Genehmigung
Wetterdaten: Donnerstag, 26.12.2019
Datum Zeit Temp. A. Feuchte A. Luftdruck Regen Wind Richtung Richtung Sonnenschein Solar Taupunkt Windchill Windben
26.12.2019 00:00 6,7 C 95 % 1021,0 hPa 0,0 l/m 8,5 km/h (2 Bft) W-SW 254 0 min 0 W/m 6,0 C 5,0 C 16,1 km/h (3 Bft)
26.12.2019 00:03 6,7 C 95 % 1021,1 hPa 0,0 l/m 10,1 km/h (2 Bft) W 264 0 min 0 W/m 6,0 C 3,9 C 16,1 km/h (3 Bft)
26.12.2019 00:06 6,7 C 95 % 1021,1 hPa 0,0 l/m 8,6 km/h (2 Bft) W 265 0 min 0 W/m 6,0 C 4,9 C 17,7 km/h (3 Bft)
26.12.2019 00:09 6,7 C 95 % 1021,0 hPa 0,0 l/m 9,0 km/h (2 Bft) W-SW 248 0 min 0 W/m 6,0 C 4,6 C 16,1 km/h (3 Bft)
26.12.2019 00:12 6,8 C 95 % 1021,1 hPa 0,0 l/m 9,2 km/h (2 Bft) W-SW 250 0 min 0 W/m 6,1 C 4,6 C 16,1 km/h (3 Bft)
26.12.2019 00:15 6,8 C 95 % 1021,2 hPa 0,0 l/m 8,4 km/h (2 Bft) W-SW 254 0 min 0 W/m 6,1 C 5,2 C 14,5 km/h (3 Bft)
26.12.2019 00:18 6,8 C 95 % 1021,1 hPa 0,0 l/m 7,8 km/h (2 Bft) W-SW 253 0 min 0 W/m 6,1 C 5,6 C 14,5 km/h (3 Bft)
26.12.2019 00:21 6,8 C 95 % 1021,1 hPa 0,0 l/m 7,9 km/h (2 Bft) W-SW 252 0 min 0 W/m 6,1 C 5,6 C 14,5 km/h (3 Bft)
26.12.2019 00:24 6,8 C 95 % 1021,1 hPa 0,0 l/m 11,1 km/h (2 Bft) W-SW 244 0 min 0 W/m 6,1 C 3,4 C 17,7 km/h (3 Bft)
26.12.2019 00:27 6,8 C 95 % 1021,1 hPa 0,0 l/m 8,2 km/h (2 Bft) W-SW 257 0 min 0 W/m 6,1 C 5,3 C 14,5 km/h (3 Bft)
26.12.2019 00:30 6,8 C 95 % 1021,1 hPa 0,0 l/m 9,3 km/h (2 Bft) W-SW 249 0 min 0 W/m 6,1 C 4,5 C 16,1 km/h (3 Bft)
26.12.2019 00:33 6,8 C 95 % 1021,2 hPa 0,0 l/m 8,1 km/h (2 Bft) W 259 0 min 0 W/m 6,1 C 5,4 C 12,9 km/h (3 Bft)
26.12.2019 00:36 6,8 C 95 % 1021,2 hPa 0,0 l/m 7,5 km/h (2 Bft) W 267 0 min 0 W/m 6,1 C 5,9 C 12,9 km/h (3 Bft)
26.12.2019 00:39 6,8 C 95 % 1021,2 hPa 0,0 l/m 7,9 km/h (2 Bft) W 268 0 min 0 W/m 6,1 C 5,6 C 14,5 km/h (3 Bft)
26.12.2019 00:42 6,8 C 95 % 1021,2 hPa 0,0 l/m 10,7 km/h (2 Bft) W-SW 243 0 min 0 W/m 6,1 C 3,6 C 17,7 km/h (3 Bft)
26.12.2019 00:45 6,8 C 95 % 1021,2 hPa 0,0 l/m 10,8 km/h (2 Bft) W-SW 244 0 min 0 W/m 6,1 C 3,5 C 19,3 km/h (3 Bft)
26.12.2019 00:48 6,8 C 95 % 1021,2 hPa 0,0 l/m 11,5 km/h (2 Bft) SW 234 0 min 0 W/m 6,1 C 3,1 C 17,7 km/h (3 Bft)
26.12.2019 00:51 6,8 C 95 % 1021,2 hPa 0,0 l/m 12,2 km/h (2 Bft) W 281 0 min 0 W/m 6,1 C 2,7 C 19,3 km/h (3 Bft)
26.12.2019 00:54 6,8 C 95 % 1021,2 hPa 0,0 l/m 10,0 km/h (2 Bft) W 267 0 min 0 W/m 6,1 C 4,1 C 17,7 km/h (3 Bft)
26.12.2019 00:57 6,8 C 95 % 1021,2 hPa 0,0 l/m 10,1 km/h (2 Bft) W-SW 252 0 min 0 W/m 6,1 C 4,0 C 17,7 km/h (3 Bft)
26.12.2019 01:00 6,8 C 95 % 1021,3 hPa 0,0 l/m 11,6 km/h (2 Bft) W-SW 258 0 min 0 W/m 6,1 C 3,1 C 17,7 km/h (3 Bft)
26.12.2019 01:03 6,8 C 95 % 1021,3 hPa 0,0 l/m 10,6 km/h (2 Bft) W 265 0 min 0 W/m 6,1 C 3,7 C 14,5 km/h (3 Bft)
26.12.2019 01:06 6,8 C 95 % 1021,4 hPa 0,0 l/m 8,3 km/h (2 Bft) W 271 0 min 0 W/m 6,1 C 5,3 C 17,7 km/h (3 Bft)
26.12.2019 01:09 6,8 C 95 % 1021,4 hPa 0,0 l/m 7,9 km/h (2 Bft) W 269 0 min 0 W/m 6,1 C 5,6 C 14,5 km/h (3 Bft)
26.12.2019 01:12 6,8 C 95 % 1021,4 hPa 0,0 l/m 5,4 km/h (2 Bft) W 270 0 min 0 W/m 6,1 C 6,8 C 9,7 km/h (2 Bft)
26.12.2019 01:15 6,8 C 95 % 1021,3 hPa 0,2 l/m 4,0 km/h (1 Bft) W 270 0 min 0 W/m 6,1 C 6,8 C 6,4 km/h (2 Bft)
26.12.2019 01:18 6,8 C 95 % 1021,5 hPa 0,2 l/m 9,1 km/h (2 Bft) N-NW 329 0 min 0 W/m 6,1 C 4,7 C 19,3 km/h (3 Bft)
26.12.2019 01:21 6,8 C 95 % 1021,4 hPa 0,2 l/m 8,2 km/h (2 Bft) W 279 0 min 0 W/m 6,1 C 5,3 C 19,3 km/h (3 Bft)
26.12.2019 01:24 6,8 C 94 % 1021,4 hPa 0,0 l/m 4,6 km/h (1 Bft) W 275 0 min 0 W/m 5,9 C 6,8 C 9,7 km/h (2 Bft)
26.12.2019 01:27 6,7 C 94 % 1021,4 hPa 0,0 l/m 9,0 km/h (2 Bft) W-NW 288 0 min 0 W/m 5,8 C 4,6 C 17,7 km/h (3 Bft)
26.12.2019 01:30 6,7 C 94 % 1021,4 hPa 0,0 l/m 9,5 km/h (2 Bft) W-SW 250 0 min 0 W/m 5,8 C 4,3 C 14,5 km/h (3 Bft)
26.12.2019 01:33 6,7 C 94 % 1021,3 hPa 0,0 l/m 8,8 km/h (2 Bft) W 277 0 min 0 W/m 5,8 C 4,8 C 16,1 km/h (3 Bft)
26.12.2019 01:36 6,7 C 94 % 1021,3 hPa 0,0 l/m 6,3 km/h (2 Bft) W 267 0 min 0 W/m 5,8 C 6,7 C 11,3 km/h (2 Bft)
26.12.2019 01:39 6,7 C 94 % 1021,3 hPa 0,0 l/m 6,4 km/h (2 Bft) W 260 0 min 0 W/m 5,8 C 6,7 C 12,9 km/h (3 Bft)
26.12.2019 01:42 6,7 C 94 % 1021,3 hPa 0,0 l/m 5,9 km/h (2 Bft) W 260 0 min 0 W/m 5,8 C 6,7 C 11,3 km/h (2 Bft)
26.12.2019 01:45 6,7 C 94 % 1021,3 hPa 0,0 l/m 4,3 km/h (1 Bft) W 260 0 min 0 W/m 5,8 C 6,7 C 9,7 km/h (2 Bft)
26.12.2019 01:48 6,6 C 94 % 1021,3 hPa 0,0 l/m 4,8 km/h (1 Bft) W 260 0 min 0 W/m 5,7 C 6,6 C 9,7 km/h (2 Bft)
26.12.2019 01:51 6,6 C 94 % 1021,3 hPa 0,0 l/m 8,7 km/h (2 Bft) W 261 0 min 0 W/m 5,7 C 4,8 C 14,5 km/h (3 Bft)
26.12.2019 01:54 6,5 C 94 % 1021,3 hPa 0,0 l/m 9,3 km/h (2 Bft) W 270 0 min 0 W/m 5,6 C 4,2 C 17,7 km/h (3 Bft)
26.12.2019 01:57 6,4 C 94 % 1021,3 hPa 0,0 l/m 11,3 km/h (2 Bft) W 267 0 min 0 W/m 5,5 C 2,8 C 16,1 km/h (3 Bft)
26.12.2019 02:00 6,4 C 94 % 1021,2 hPa 0,0 l/m 10,5 km/h (2 Bft) W 277 0 min 0 W/m 5,5 C 3,3 C 17,7 km/h (3 Bft)
26.12.2019 02:03 6,4 C 94 % 1021,2 hPa 0,0 l/m 11,8 km/h (2 Bft) W 271 0 min 0 W/m 5,5 C 2,5 C 19,3 km/h (3 Bft)
26.12.2019 02:06 6,3 C 94 % 1021,2 hPa 0,0 l/m 11,3 km/h (2 Bft) W 278 0 min 0 W/m 5,4 C 2,7 C 19,3 km/h (3 Bft)
26.12.2019 02:09 6,3 C 94 % 1021,2 hPa 0,0 l/m 12,9 km/h (3 Bft) W 261 0 min 0 W/m 5,4 C 1,7 C 17,7 km/h (3 Bft)
26.12.2019 02:12 6,3 C 94 % 1021,2 hPa 0,0 l/m 10,5 km/h (2 Bft) W 269 0 min 0 W/m 5,4 C 3,2 C 19,3 km/h (3 Bft)
26.12.2019 02:15 6,3 C 94 % 1021,3 hPa 0,0 l/m 10,9 km/h (2 Bft) W 277 0 min 0 W/m 5,4 C 2,9 C 19,3 km/h (3 Bft)
26.12.2019 02:18 6,3 C 94 % 1021,2 hPa 0,0 l/m 9,3 km/h (2 Bft) W-SW 250 0 min 0 W/m 5,4 C 4,0 C 17,7 km/h (3 Bft)
26.12.2019 02:21 6,2 C 94 % 1021,2 hPa 0,0 l/m 6,4 km/h (2 Bft) W 272 0 min 0 W/m 5,3 C 6,2 C 14,5 km/h (3 Bft)
26.12.2019 02:24 6,2 C 95 % 1021,3 hPa 0,0 l/m 8,9 km/h (2 Bft) W 273 0 min 0 W/m 5,5 C 4,2 C 16,1 km/h (3 Bft)
26.12.2019 02:27 6,2 C 95 % 1021,3 hPa 0,0 l/m 10,0 km/h (2 Bft) W 265 0 min 0 W/m 5,5 C 3,4 C 17,7 km/h (3 Bft)
26.12.2019 02:30 6,2 C 95 % 1021,3 hPa 0,0 l/m 8,8 km/h (2 Bft) W-SW 258 0 min 0 W/m 5,5 C 4,2 C 16,1 km/h (3 Bft)
26.12.2019 02:33 6,2 C 95 % 1021,3 hPa 0,0 l/m 8,6 km/h (2 Bft) W-SW 244 0 min 0 W/m 5,5 C 4,4 C 12,9 km/h (3 Bft)
26.12.2019 02:36 6,2 C 95 % 1021,3 hPa 0,0 l/m 7,6 km/h (2 Bft) W-SW 247 0 min 0 W/m 5,5 C 5,2 C 14,5 km/h (3 Bft)
26.12.2019 02:39 6,2 C 95 % 1021,4 hPa 0,0 l/m 6,6 km/h (2 Bft) W-SW 245 0 min 0 W/m 5,5 C 6,1 C 11,3 km/h (2 Bft)
26.12.2019 02:42 6,2 C 95 % 1021,3 hPa 0,0 l/m 8,7 km/h (2 Bft) W-SW 254 0 min 0 W/m 5,5 C 4,3 C 14,5 km/h (3 Bft)
26.12.2019 02:45 6,2 C 95 % 1021,3 hPa 0,0 l/m 8,5 km/h (2 Bft) W 267 0 min 0 W/m 5,5 C 4,5 C 14,5 km/h (3 Bft)
26.12.2019 02:48 6,2 C 95 % 1021,3 hPa 0,0 l/m 7,5 km/h (2 Bft) W-SW 255 0 min 0 W/m 5,5 C 5,3 C 14,5 km/h (3 Bft)
26.12.2019 02:51 6,1 C 94 % 1021,3 hPa 0,0 l/m 7,9 km/h (2 Bft) W-SW 248 0 min 0 W/m 5,2 C 4,8 C 14,5 km/h (3 Bft)
26.12.2019 02:54 6,1 C 94 % 1021,3 hPa 0,0 l/m 8,9 km/h (2 Bft) W-SW 258 0 min 0 W/m 5,2 C 4,1 C 14,5 km/h (3 Bft)
26.12.2019 02:57 6,1 C 94 % 1021,3 hPa 0,0 l/m 6,7 km/h (2 Bft) W-SW 255 0 min 0 W/m 5,2 C 5,9 C 12,9 km/h (3 Bft)
26.12.2019 03:00 6,1 C 94 % 1021,3 hPa 0,0 l/m 9,1 km/h (2 Bft) SW 235 0 min 0 W/m 5,2 C 3,9 C 14,5 km/h (3 Bft)
26.12.2019 03:03 6,0 C 94 % 1021,3 hPa 0,0 l/m 9,2 km/h (2 Bft) W-SW 256 0 min 0 W/m 5,1 C 3,7 C 16,1 km/h (3 Bft)
26.12.2019 03:06 6,0 C 94 % 1021,3 hPa 0,0 l/m 9,3 km/h (2 Bft) W 260 0 min 0 W/m 5,1 C 3,7 C 17,7 km/h (3 Bft)
26.12.2019 03:09 6,0 C 95 % 1021,3 hPa 0,0 l/m 9,4 km/h (2 Bft) W-SW 256 0 min 0 W/m 5,3 C 3,6 C 14,5 km/h (3 Bft)
26.12.2019 03:12 6,0 C 95 % 1021,3 hPa 0,0 l/m 8,6 km/h (2 Bft) W 270 0 min 0 W/m 5,3 C 4,2 C 16,1 km/h (3 Bft)
26.12.2019 03:15 6,0 C 95 % 1021,3 hPa 0,0 l/m 8,4 km/h (2 Bft) W 267 0 min 0 W/m 5,3 C 4,3 C 16,1 km/h (3 Bft)
26.12.2019 03:18 6,0 C 95 % 1021,3 hPa 0,0 l/m 7,9 km/h (2 Bft) W 264 0 min 0 W/m 5,3 C 4,7 C 12,9 km/h (3 Bft)
26.12.2019 03:21 6,0 C 95 % 1021,3 hPa 0,0 l/m 9,4 km/h (2 Bft) W 273 0 min 0 W/m 5,3 C 3,6 C 16,1 km/h (3 Bft)
26.12.2019 03:24 6,0 C 95 % 1021,3 hPa 0,0 l/m 8,5 km/h (2 Bft) W 270 0 min 0 W/m 5,3 C 4,3 C 16,1 km/h (3 Bft)
26.12.2019 03:27 6,1 C 95 % 1021,3 hPa 0,0 l/m 9,2 km/h (2 Bft) W 279 0 min 0 W/m 5,4 C 3,8 C 17,7 km/h (3 Bft)
26.12.2019 03:30 6,1 C 95 % 1021,2 hPa 0,0 l/m 7,1 km/h (2 Bft) W 270 0 min 0 W/m 5,4 C 5,5 C 16,1 km/h (3 Bft)
26.12.2019 03:33 6,1 C 95 % 1021,3 hPa 0,0 l/m 7,8 km/h (2 Bft) W 280 0 min 0 W/m 5,4 C 4,9 C 14,5 km/h (3 Bft)
26.12.2019 03:36 6,1 C 95 % 1021,3 hPa 0,0 l/m 8,0 km/h (2 Bft) W 266 0 min 0 W/m 5,4 C 4,8 C 14,5 km/h (3 Bft)
26.12.2019 03:39 6,1 C 95 % 1021,3 hPa 0,0 l/m 7,5 km/h (2 Bft) NW 312 0 min 0 W/m 5,4 C 5,2 C 16,1 km/h (3 Bft)
26.12.2019 03:42 6,1 C 95 % 1021,3 hPa 0,0 l/m 8,1 km/h (2 Bft) W-NW 288 0 min 0 W/m 5,4 C 4,7 C 17,7 km/h (3 Bft)
26.12.2019 03:45 6,2 C 95 % 1021,3 hPa 0,0 l/m 7,8 km/h (2 Bft) W-NW 292 0 min 0 W/m 5,5 C 5,0 C 12,9 km/h (3 Bft)
26.12.2019 03:48 6,2 C 95 % 1021,3 hPa 0,0 l/m 5,3 km/h (1 Bft) W-SW 254 0 min 0 W/m 5,5 C 6,2 C 14,5 km/h (3 Bft)
26.12.2019 03:51 6,2 C 95 % 1021,3 hPa 0,0 l/m 8,0 km/h (2 Bft) W 261 0 min 0 W/m 5,5 C 4,9 C 17,7 km/h (3 Bft)
26.12.2019 03:54 6,1 C 95 % 1021,3 hPa 0,0 l/m 8,0 km/h (2 Bft) W 267 0 min 0 W/m 5,4 C 4,8 C 17,7 km/h (3 Bft)
26.12.2019 03:57 6,1 C 95 % 1021,2 hPa 0,0 l/m 7,7 km/h (2 Bft) W 277 0 min 0 W/m 5,4 C 5,0 C 17,7 km/h (3 Bft)
26.12.2019 04:00 6,1 C 95 % 1021,3 hPa 0,0 l/m 10,0 km/h (2 Bft) W 279 0 min 0 W/m 5,4 C 3,3 C 17,7 km/h (3 Bft)
26.12.2019 04:03 6,1 C 95 % 1021,2 hPa 0,0 l/m 7,8 km/h (2 Bft) W 270 0 min 0 W/m 5,4 C 4,9 C 14,5 km/h (3 Bft)
26.12.2019 04:06 6,2 C 95 % 1021,2 hPa 0,0 l/m 9,0 km/h (2 Bft) W 275 0 min 0 W/m 5,5 C 4,1 C 16,1 km/h (3 Bft)
26.12.2019 04:09 6,2 C 95 % 1021,2 hPa 0,0 l/m 9,8 km/h (2 Bft) W 269 0 min 0 W/m 5,5 C 3,5 C 14,5 km/h (3 Bft)
26.12.2019 04:12 6,2 C 95 % 1021,2 hPa 0,0 l/m 8,2 km/h (2 Bft) W 267 0 min 0 W/m 5,5 C 4,7 C 14,5 km/h (3 Bft)
26.12.2019 04:15 6,1 C 95 % 1021,2 hPa 0,0 l/m 6,6 km/h (2 Bft) W 273 0 min 0 W/m 5,4 C 6,0 C 14,5 km/h (3 Bft)
26.12.2019 04:18 6,1 C 95 % 1021,2 hPa 0,0 l/m 7,4 km/h (2 Bft) W-SW 258 0 min 0 W/m 5,4 C 5,3 C 12,9 km/h (3 Bft)
26.12.2019 04:21 6,1 C 95 % 1021,1 hPa 0,0 l/m 7,0 km/h (2 Bft) W 259 0 min 0 W/m 5,4 C 5,6 C 11,3 km/h (2 Bft)
26.12.2019 04:24 6,1 C 95 % 1021,1 hPa 0,0 l/m 5,8 km/h (2 Bft) W 259 0 min 0 W/m 5,4 C 6,1 C 12,9 km/h (3 Bft)
26.12.2019 04:27 6,1 C 95 % 1021,2 hPa 0,0 l/m 6,7 km/h (2 Bft) W 259 0 min 0 W/m 5,4 C 5,9 C 11,3 km/h (2 Bft)
26.12.2019 04:30 6,0 C 95 % 1021,2 hPa 0,0 l/m 5,2 km/h (1 Bft) W 259 0 min 0 W/m 5,3 C 6,0 C 11,3 km/h (2 Bft)
26.12.2019 04:33 6,0 C 95 % 1021,2 hPa 0,0 l/m 5,4 km/h (2 Bft) W 259 0 min 0 W/m 5,3 C 6,0 C 12,9 km/h (3 Bft)
26.12.2019 04:36 5,9 C 95 % 1021,2 hPa 0,0 l/m 5,5 km/h (2 Bft) W 259 0 min 0 W/m 5,2 C 5,9 C 12,9 km/h (3 Bft)
26.12.2019 04:39 5,9 C 95 % 1021,3 hPa 0,0 l/m 5,6 km/h (2 Bft) W 259 0 min 0 W/m 5,2 C 5,9 C 9,7 km/h (2 Bft)
26.12.2019 04:42 5,8 C 95 % 1021,2 hPa 0,0 l/m 4,7 km/h (1 Bft) W 259 0 min 0 W/m 5,1 C 5,8 C 6,4 km/h (2 Bft)
26.12.2019 04:45 5,8 C 95 % 1021,2 hPa 0,0 l/m 4,2 km/h (1 Bft) W 259 0 min 0 W/m 5,1 C 5,8 C 9,7 km/h (2 Bft)
26.12.2019 04:48 5,8 C 95 % 1021,2 hPa 0,0 l/m 5,8 km/h (2 Bft) W 259 0 min 0 W/m 5,1 C 5,8 C 9,7 km/h (2 Bft)
26.12.2019 04:51 5,8 C 95 % 1021,2 hPa 0,0 l/m 5,0 km/h (1 Bft) W 259 0 min 0 W/m 5,1 C 5,8 C 9,7 km/h (2 Bft)
26.12.2019 04:54 5,7 C 95 % 1021,2 hPa 0,0 l/m 5,5 km/h (2 Bft) W 259 0 min 0 W/m 5,0 C 5,7 C 11,3 km/h (2 Bft)
26.12.2019 04:57 5,7 C 95 % 1021,1 hPa 0,0 l/m 3,6 km/h (1 Bft) W 259 0 min 0 W/m 5,0 C 5,7 C 4,8 km/h (1 Bft)
26.12.2019 05:00 5,7 C 95 % 1021,1 hPa 0,0 l/m 3,1 km/h (1 Bft) W 259 0 min 0 W/m 5,0 C 5,7 C 6,4 km/h (2 Bft)
26.12.2019 05:03 5,7 C 95 % 1021,2 hPa 0,0 l/m 3,2 km/h (1 Bft) W 259 0 min 0 W/m 5,0 C 5,7 C 6,4 km/h (2 Bft)
26.12.2019 05:06 5,6 C 95 % 1021,1 hPa 0,0 l/m 5,3 km/h (1 Bft) W 263 0 min 0 W/m 4,9 C 5,6 C 11,3 km/h (2 Bft)
26.12.2019 05:09 5,6 C 95 % 1021,1 hPa 0,0 l/m 7,1 km/h (2 Bft) W 271 0 min 0 W/m 4,9 C 5,0 C 12,9 km/h (3 Bft)
26.12.2019 05:12 5,6 C 95 % 1021,1 hPa 0,0 l/m 7,3 km/h (2 Bft) W 269 0 min 0 W/m 4,9 C 4,8 C 12,9 km/h (3 Bft)
26.12.2019 05:15 5,6 C 95 % 1021,1 hPa 0,0 l/m 6,7 km/h (2 Bft) W 267 0 min 0 W/m 4,9 C 5,4 C 16,1 km/h (3 Bft)
26.12.2019 05:18 5,6 C 95 % 1021,1 hPa 0,2 l/m 7,4 km/h (2 Bft) W 260 0 min 0 W/m 4,9 C 4,7 C 12,9 km/h (3 Bft)
26.12.2019 05:21 5,7 C 95 % 1021,1 hPa 0,0 l/m 5,3 km/h (1 Bft) W 263 0 min 0 W/m 5,0 C 5,7 C 9,7 km/h (2 Bft)
26.12.2019 05:24 5,7 C 95 % 1021,1 hPa 0,0 l/m 7,5 km/h (2 Bft) W 270 0 min 0 W/m 5,0 C 4,8 C 14,5 km/h (3 Bft)
26.12.2019 05:27 5,7 C 95 % 1021,1 hPa 0,0 l/m 8,9 km/h (2 Bft) W 264 0 min 0 W/m 5,0 C 3,6 C 14,5 km/h (3 Bft)
26.12.2019 05:30 5,7 C 95 % 1021,1 hPa 0,0 l/m 8,4 km/h (2 Bft) W 259 0 min 0 W/m 5,0 C 4,0 C 12,9 km/h (3 Bft)
26.12.2019 05:33 5,7 C 95 % 1021,1 hPa 0,0 l/m 8,3 km/h (2 Bft) W 264 0 min 0 W/m 5,0 C 4,1 C 14,5 km/h (3 Bft)
26.12.2019 05:36 5,7 C 95 % 1021,2 hPa 0,0 l/m 8,6 km/h (2 Bft) W 262 0 min 0 W/m 5,0 C 3,9 C 16,1 km/h (3 Bft)
26.12.2019 05:39 5,7 C 95 % 1021,1 hPa 0,0 l/m 8,3 km/h (2 Bft) W-NW 283 0 min 0 W/m 5,0 C 4,1 C 14,5 km/h (3 Bft)
26.12.2019 05:42 5,7 C 95 % 1021,1 hPa 0,0 l/m 9,9 km/h (2 Bft) W 260 0 min 0 W/m 5,0 C 2,9 C 19,3 km/h (3 Bft)
26.12.2019 05:45 5,8 C 95 % 1021,1 hPa 0,0 l/m 10,1 km/h (2 Bft) W 269 0 min 0 W/m 5,1 C 2,9 C 17,7 km/h (3 Bft)
26.12.2019 05:48 5,7 C 95 % 1021,1 hPa 0,0 l/m 8,9 km/h (2 Bft) W 273 0 min 0 W/m 5,0 C 3,6 C 16,1 km/h (3 Bft)
26.12.2019 05:51 5,8 C 95 % 1021,1 hPa 0,0 l/m 8,2 km/h (2 Bft) W 271 0 min 0 W/m 5,1 C 4,3 C 14,5 km/h (3 Bft)
26.12.2019 05:54 5,7 C 95 % 1021,0 hPa 0,0 l/m 5,3 km/h (1 Bft) W 278 0 min 0 W/m 5,0 C 5,7 C 11,3 km/h (2 Bft)
26.12.2019 05:57 5,7 C 95 % 1021,0 hPa 0,0 l/m 8,1 km/h (2 Bft) W 275 0 min 0 W/m 5,0 C 4,3 C 17,7 km/h (3 Bft)
26.12.2019 06:00 5,7 C 95 % 1021,0 hPa 0,0 l/m 6,5 km/h (2 Bft) W 274 0 min 0 W/m 5,0 C 5,6 C 14,5 km/h (3 Bft)
26.12.2019 06:03 5,7 C 95 % 1021,0 hPa 0,0 l/m 8,2 km/h (2 Bft) W 263 0 min 0 W/m 5,0 C 4,2 C 14,5 km/h (3 Bft)
26.12.2019 06:06 5,7 C 95 % 1021,1 hPa 0,0 l/m 6,0 km/h (2 Bft) W 266 0 min 0 W/m 5,0 C 5,7 C 11,3 km/h (2 Bft)
26.12.2019 06:09 5,7 C 95 % 1021,2 hPa 0,0 l/m 6,9 km/h (2 Bft) W 272 0 min 0 W/m 5,0 C 5,3 C 14,5 km/h (3 Bft)
26.12.2019 06:12 5,7 C 95 % 1021,2 hPa 0,0 l/m 5,9 km/h (2 Bft) W 268 0 min 0 W/m 5,0 C 5,7 C 11,3 km/h (2 Bft)
26.12.2019 06:15 5,6 C 95 % 1021,1 hPa 0,0 l/m 7,5 km/h (2 Bft) W 261 0 min 0 W/m 4,9 C 4,6 C 14,5 km/h (3 Bft)
26.12.2019 06:18 5,6 C 95 % 1021,1 hPa 0,0 l/m 6,7 km/h (2 Bft) W 269 0 min 0 W/m 4,9 C 5,4 C 12,9 km/h (3 Bft)
26.12.2019 06:21 5,6 C 95 % 1021,1 hPa 0,0 l/m 7,1 km/h (2 Bft) W-SW 257 0 min 0 W/m 4,9 C 5,0 C 11,3 km/h (2 Bft)
26.12.2019 06:24 5,6 C 95 % 1021,2 hPa 0,0 l/m 7,1 km/h (2 Bft) W-SW 256 0 min 0 W/m 4,9 C 5,0 C 14,5 km/h (3 Bft)
26.12.2019 06:27 5,6 C 95 % 1021,1 hPa 0,0 l/m 8,7 km/h (2 Bft) W-SW 243 0 min 0 W/m 4,9 C 3,7 C 14,5 km/h (3 Bft)
26.12.2019 06:30 5,6 C 95 % 1021,1 hPa 0,0 l/m 7,3 km/h (2 Bft) W 263 0 min 0 W/m 4,9 C 4,8 C 12,9 km/h (3 Bft)
26.12.2019 06:33 5,6 C 95 % 1021,2 hPa 0,0 l/m 7,3 km/h (2 Bft) W-SW 258 0 min 0 W/m 4,9 C 4,8 C 12,9 km/h (3 Bft)
26.12.2019 06:36 5,6 C 95 % 1021,2 hPa 0,0 l/m 8,2 km/h (2 Bft) W 268 0 min 0 W/m 4,9 C 4,1 C 12,9 km/h (3 Bft)
26.12.2019 06:39 5,6 C 95 % 1021,3 hPa 0,0 l/m 4,6 km/h (1 Bft) W 268 0 min 0 W/m 4,9 C 5,6 C 6,4 km/h (2 Bft)
26.12.2019 06:42 5,5 C 95 % 1021,3 hPa 0,0 l/m 6,2 km/h (2 Bft) W 259 0 min 0 W/m 4,8 C 5,5 C 11,3 km/h (2 Bft)
26.12.2019 06:45 5,5 C 95 % 1021,3 hPa 0,0 l/m 5,7 km/h (2 Bft) W-SW 256 0 min 0 W/m 4,8 C 5,5 C 11,3 km/h (2 Bft)
26.12.2019 06:48 5,4 C 95 % 1021,2 hPa 0,0 l/m 5,3 km/h (1 Bft) W-SW 256 0 min 0 W/m 4,7 C 5,4 C 8,0 km/h (2 Bft)
26.12.2019 06:51 5,4 C 95 % 1021,2 hPa 0,0 l/m 4,1 km/h (1 Bft) W-SW 256 0 min 0 W/m 4,7 C 5,4 C 8,0 km/h (2 Bft)
26.12.2019 06:54 5,4 C 95 % 1021,2 hPa 0,0 l/m 4,9 km/h (1 Bft) W-SW 255 0 min 0 W/m 4,7 C 5,4 C 8,0 km/h (2 Bft)
26.12.2019 06:57 5,4 C 95 % 1021,2 hPa 0,0 l/m 5,1 km/h (1 Bft) W-SW 256 0 min 0 W/m 4,7 C 5,4 C 11,3 km/h (2 Bft)
26.12.2019 07:00 5,4 C 95 % 1021,2 hPa 0,0 l/m 5,7 km/h (2 Bft) W-SW 256 0 min 0 W/m 4,7 C 5,4 C 8,0 km/h (2 Bft)
26.12.2019 07:03 5,4 C 95 % 1021,1 hPa 0,0 l/m 4,9 km/h (1 Bft) W-SW 256 0 min 0 W/m 4,7 C 5,4 C 8,0 km/h (2 Bft)
26.12.2019 07:06 5,4 C 95 % 1021,2 hPa 0,0 l/m 6,7 km/h (2 Bft) SW 219 0 min 0 W/m 4,7 C 5,2 C 12,9 km/h (3 Bft)
26.12.2019 07:09 5,4 C 95 % 1021,2 hPa 0,0 l/m 5,1 km/h (1 Bft) SW 232 0 min 0 W/m 4,7 C 5,4 C 8,0 km/h (2 Bft)
26.12.2019 07:12 5,4 C 95 % 1021,2 hPa 0,0 l/m 4,9 km/h (1 Bft) W-SW 248 0 min 0 W/m 4,7 C 5,4 C 8,0 km/h (2 Bft)
26.12.2019 07:15 5,4 C 95 % 1021,2 hPa 0,0 l/m 4,3 km/h (1 Bft) W-SW 249 0 min 0 W/m 4,7 C 5,4 C 8,0 km/h (2 Bft)
26.12.2019 07:18 5,4 C 95 % 1021,2 hPa 0,0 l/m 4,2 km/h (1 Bft) W-SW 248 0 min 0 W/m 4,7 C 5,4 C 8,0 km/h (2 Bft)
26.12.2019 07:21 5,5 C 95 % 1021,2 hPa 0,0 l/m 4,7 km/h (1 Bft) W-SW 248 0 min 0 W/m 4,8 C 5,5 C 12,9 km/h (3 Bft)
26.12.2019 07:24 5,4 C 95 % 1021,2 hPa 0,0 l/m 3,2 km/h (1 Bft) W-SW 248 0 min 0 W/m 4,7 C 5,4 C 8,0 km/h (2 Bft)
26.12.2019 07:27 5,4 C 95 % 1021,2 hPa 0,0 l/m 6,2 km/h (2 Bft) W-SW 242 0 min 0 W/m 4,7 C 5,4 C 12,9 km/h (3 Bft)
26.12.2019 07:30 5,4 C 95 % 1021,2 hPa 0,0 l/m 4,3 km/h (1 Bft) W-SW 242 0 min 0 W/m 4,7 C 5,4 C 8,0 km/h (2 Bft)
26.12.2019 07:33 5,4 C 95 % 1021,3 hPa 0,0 l/m 3,8 km/h (1 Bft) W-SW 242 0 min 0 W/m 4,7 C 5,4 C 6,4 km/h (2 Bft)
26.12.2019 07:36 5,4 C 95 % 1021,3 hPa 0,0 l/m 4,1 km/h (1 Bft) W-SW 242 0 min 0 W/m 4,7 C 5,4 C 6,4 km/h (2 Bft)
26.12.2019 07:39 5,4 C 95 % 1021,3 hPa 0,0 l/m 3,7 km/h (1 Bft) W-SW 242 0 min 0 W/m 4,7 C 5,4 C 8,0 km/h (2 Bft)
26.12.2019 07:42 5,4 C 95 % 1021,3 hPa 0,0 l/m 3,9 km/h (1 Bft) W-SW 242 0 min 0 W/m 4,7 C 5,4 C 8,0 km/h (2 Bft)
26.12.2019 07:45 5,4 C 95 % 1021,3 hPa 0,0 l/m 3,9 km/h (1 Bft) W-SW 242 0 min 0 W/m 4,7 C 5,4 C 6,4 km/h (2 Bft)
26.12.2019 07:48 5,4 C 95 % 1021,4 hPa 0,0 l/m 4,8 km/h (1 Bft) W-SW 242 0 min 0 W/m 4,7 C 5,4 C 9,7 km/h (2 Bft)
26.12.2019 07:51 5,4 C 95 % 1021,3 hPa 0,0 l/m 4,5 km/h (1 Bft) W-SW 242 0 min 0 W/m 4,7 C 5,4 C 8,0 km/h (2 Bft)
26.12.2019 07:54 5,4 C 95 % 1021,3 hPa 0,0 l/m 5,8 km/h (2 Bft) W-SW 243 0 min 0 W/m 4,7 C 5,4 C 9,7 km/h (2 Bft)
26.12.2019 07:57 5,4 C 95 % 1021,3 hPa 0,0 l/m 5,2 km/h (1 Bft) W-SW 243 0 min 0 W/m 4,7 C 5,4 C 6,4 km/h (2 Bft)
26.12.2019 08:00 5,4 C 95 % 1021,3 hPa 0,0 l/m 5,6 km/h (2 Bft) W-SW 244 0 min 0 W/m 4,7 C 5,4 C 11,3 km/h (2 Bft)
26.12.2019 08:03 5,4 C 95 % 1021,3 hPa 0,0 l/m 5,5 km/h (2 Bft) W-SW 244 0 min 0 W/m 4,7 C 5,4 C 11,3 km/h (2 Bft)
26.12.2019 08:06 5,3 C 95 % 1021,3 hPa 0,0 l/m 5,6 km/h (2 Bft) SW 236 0 min 0 W/m 4,6 C 5,3 C 12,9 km/h (3 Bft)
26.12.2019 08:09 5,3 C 95 % 1021,4 hPa 0,0 l/m 6,1 km/h (2 Bft) SW 236 0 min 0 W/m 4,6 C 5,3 C 9,7 km/h (2 Bft)
26.12.2019 08:12 5,3 C 95 % 1021,3 hPa 0,0 l/m 4,5 km/h (1 Bft) SW 236 0 min 0 W/m 4,6 C 5,3 C 8,0 km/h (2 Bft)
26.12.2019 08:15 5,3 C 95 % 1021,4 hPa 0,0 l/m 6,2 km/h (2 Bft) W-SW 237 0 min 0 W/m 4,6 C 5,3 C 11,3 km/h (2 Bft)
26.12.2019 08:18 5,3 C 95 % 1021,4 hPa 0,0 l/m 4,0 km/h (1 Bft) W-SW 237 0 min 0 W/m 4,6 C 5,3 C 8,0 km/h (2 Bft)
26.12.2019 08:21 5,3 C 95 % 1021,5 hPa 0,0 l/m 4,6 km/h (1 Bft) W-SW 237 0 min 0 W/m 4,6 C 5,3 C 9,7 km/h (2 Bft)
26.12.2019 08:24 5,3 C 95 % 1021,5 hPa 0,0 l/m 4,2 km/h (1 Bft) W-SW 237 0 min 0 W/m 4,6 C 5,3 C 8,0 km/h (2 Bft)
26.12.2019 08:27 5,2 C 95 % 1021,5 hPa 0,0 l/m 4,2 km/h (1 Bft) W-SW 237 0 min 0 W/m 4,5 C 5,2 C 6,4 km/h (2 Bft)
26.12.2019 08:30 5,2 C 95 % 1021,5 hPa 0,0 l/m 4,9 km/h (1 Bft) W-SW 237 0 min 0 W/m 4,5 C 5,2 C 8,0 km/h (2 Bft)
26.12.2019 08:33 5,2 C 95 % 1021,5 hPa 0,0 l/m 4,7 km/h (1 Bft) W-SW 237 0 min 0 W/m 4,5 C 5,2 C 8,0 km/h (2 Bft)
26.12.2019 08:36 5,2 C 95 % 1021,6 hPa 0,0 l/m 4,6 km/h (1 Bft) W-SW 237 0 min 0 W/m 4,5 C 5,2 C 6,4 km/h (2 Bft)
26.12.2019 08:39 5,2 C 95 % 1021,6 hPa 0,0 l/m 3,9 km/h (1 Bft) W-SW 237 0 min 0 W/m 4,5 C 5,2 C 8,0 km/h (2 Bft)
26.12.2019 08:42 5,1 C 95 % 1021,6 hPa 0,0 l/m 5,3 km/h (1 Bft) W-SW 237 0 min 0 W/m 4,4 C 5,1 C 9,7 km/h (2 Bft)
26.12.2019 08:45 5,1 C 95 % 1021,6 hPa 0,0 l/m 4,9 km/h (1 Bft) W-SW 237 0 min 0 W/m 4,4 C 5,1 C 6,4 km/h (2 Bft)
26.12.2019 08:48 5,1 C 95 % 1021,6 hPa 0,0 l/m 6,1 km/h (2 Bft) W-SW 237 0 min 0 W/m 4,4 C 5,1 C 8,0 km/h (2 Bft)
26.12.2019 08:51 5,1 C 95 % 1021,7 hPa 0,0 l/m 6,1 km/h (2 Bft) W-SW 237 0 min 0 W/m 4,4 C 5,1 C 9,7 km/h (2 Bft)
26.12.2019 08:54 5,2 C 95 % 1021,7 hPa 0,0 l/m 5,7 km/h (2 Bft) W-SW 237 0 min 5 W/m 4,5 C 5,2 C 9,7 km/h (2 Bft)
26.12.2019 08:57 5,1 C 95 % 1021,7 hPa 0,0 l/m 5,4 km/h (2 Bft) W-SW 237 0 min 5 W/m 4,4 C 5,1 C 8,0 km/h (2 Bft)
26.12.2019 09:00 5,1 C 95 % 1021,8 hPa 0,0 l/m 5,3 km/h (1 Bft) W-SW 237 0 min 7 W/m 4,4 C 5,1 C 9,7 km/h (2 Bft)
26.12.2019 09:03 5,1 C 95 % 1021,7 hPa 0,0 l/m 4,9 km/h (1 Bft) W-SW 237 0 min 7 W/m 4,4 C 5,1 C 9,7 km/h (2 Bft)
26.12.2019 09:06 5,1 C 95 % 1021,8 hPa 0,0 l/m 7,0 km/h (2 Bft) W-SW 237 0 min 7 W/m 4,4 C 4,6 C 9,7 km/h (2 Bft)
26.12.2019 09:09 5,1 C 95 % 1021,9 hPa 0,0 l/m 5,0 km/h (1 Bft) W-SW 237 0 min 9 W/m 4,4 C 5,1 C 9,7 km/h (2 Bft)
26.12.2019 09:12 5,1 C 95 % 1021,8 hPa 0,0 l/m 5,4 km/h (2 Bft) W-SW 237 0 min 11 W/m 4,4 C 5,1 C 8,0 km/h (2 Bft)
26.12.2019 09:15 5,1 C 95 % 1021,8 hPa 0,0 l/m 7,3 km/h (2 Bft) SW 236 0 min 12 W/m 4,4 C 4,3 C 11,3 km/h (2 Bft)
26.12.2019 09:18 5,1 C 95 % 1021,9 hPa 0,0 l/m 5,4 km/h (2 Bft) W 276 0 min 12 W/m 4,4 C 5,1 C 12,9 km/h (3 Bft)
26.12.2019 09:21 5,1 C 95 % 1022,0 hPa 0,0 l/m 4,0 km/h (1 Bft) W 275 0 min 16 W/m 4,4 C 5,1 C 6,4 km/h (2 Bft)
26.12.2019 09:24 5,1 C 95 % 1021,9 hPa 0,0 l/m 4,6 km/h (1 Bft) W 275 0 min 18 W/m 4,4 C 5,1 C 9,7 km/h (2 Bft)
26.12.2019 09:27 5,1 C 95 % 1021,9 hPa 0,0 l/m 6,2 km/h (2 Bft) W 272 0 min 16 W/m 4,4 C 5,1 C 11,3 km/h (2 Bft)
26.12.2019 09:30 5,1 C 95 % 1021,9 hPa 0,0 l/m 5,9 km/h (2 Bft) W 271 0 min 18 W/m 4,4 C 5,1 C 9,7 km/h (2 Bft)
26.12.2019 09:33 5,1 C 95 % 1021,9 hPa 0,0 l/m 6,5 km/h (2 Bft) W-SW 243 0 min 25 W/m 4,4 C 5,0 C 11,3 km/h (2 Bft)
26.12.2019 09:36 5,2 C 95 % 1021,8 hPa 0,0 l/m 5,2 km/h (1 Bft) W-SW 248 0 min 30 W/m 4,5 C 5,2 C 11,3 km/h (2 Bft)
26.12.2019 09:39 5,2 C 95 % 1021,9 hPa 0,0 l/m 4,1 km/h (1 Bft) W-SW 248 0 min 30 W/m 4,5 C 5,2 C 6,4 km/h (2 Bft)
26.12.2019 09:42 5,3 C 95 % 1021,9 hPa 0,0 l/m 6,0 km/h (2 Bft) W-SW 246 0 min 26 W/m 4,6 C 5,3 C 12,9 km/h (3 Bft)
26.12.2019 09:45 5,3 C 95 % 1021,9 hPa 0,0 l/m 5,7 km/h (2 Bft) W-SW 244 0 min 26 W/m 4,6 C 5,3 C 8,0 km/h (2 Bft)
26.12.2019 09:48 5,3 C 95 % 1021,9 hPa 0,0 l/m 4,5 km/h (1 Bft) W-SW 244 0 min 25 W/m 4,6 C 5,3 C 8,0 km/h (2 Bft)
26.12.2019 09:51 5,3 C 95 % 1022,0 hPa 0,0 l/m 4,2 km/h (1 Bft) W-SW 244 0 min 23 W/m 4,6 C 5,3 C 6,4 km/h (2 Bft)
26.12.2019 09:54 5,4 C 95 % 1022,0 hPa 0,0 l/m 4,6 km/h (1 Bft) W-SW 244 0 min 25 W/m 4,7 C 5,4 C 8,0 km/h (2 Bft)
26.12.2019 09:57 5,4 C 96 % 1022,0 hPa 0,0 l/m 4,8 km/h (1 Bft) W-SW 244 0 min 32 W/m 4,8 C 5,4 C 8,0 km/h (2 Bft)
26.12.2019 10:00 5,4 C 96 % 1022,0 hPa 0,0 l/m 5,4 km/h (2 Bft) W-SW 244 0 min 33 W/m 4,8 C 5,4 C 11,3 km/h (2 Bft)
26.12.2019 10:03 5,4 C 96 % 1022,1 hPa 0,0 l/m 6,2 km/h (2 Bft) W-SW 248 0 min 35 W/m 4,8 C 5,4 C 11,3 km/h (2 Bft)
26.12.2019 10:06 5,4 C 96 % 1022,1 hPa 0,0 l/m 5,8 km/h (2 Bft) W-SW 246 0 min 32 W/m 4,8 C 5,4 C 11,3 km/h (2 Bft)
26.12.2019 10:09 5,5 C 96 % 1022,1 hPa 0,0 l/m 6,0 km/h (2 Bft) W-SW 244 0 min 33 W/m 4,9 C 5,5 C 11,3 km/h (2 Bft)
26.12.2019 10:12 5,6 C 96 % 1022,0 hPa 0,0 l/m 7,4 km/h (2 Bft) W 262 0 min 37 W/m 5,0 C 4,7 C 12,9 km/h (3 Bft)
26.12.2019 10:15 5,6 C 96 % 1022,0 hPa 0,0 l/m 6,4 km/h (2 Bft) W 263 0 min 40 W/m 5,0 C 5,6 C 12,9 km/h (3 Bft)
26.12.2019 10:18 5,7 C 96 % 1022,1 hPa 0,0 l/m 7,5 km/h (2 Bft) SW 232 0 min 42 W/m 5,1 C 4,8 C 12,9 km/h (3 Bft)
26.12.2019 10:21 5,7 C 96 % 1022,1 hPa 0,0 l/m 7,2 km/h (2 Bft) W-SW 247 0 min 42 W/m 5,1 C 5,0 C 14,5 km/h (3 Bft)
26.12.2019 10:24 5,8 C 96 % 1022,1 hPa 0,0 l/m 8,9 km/h (2 Bft) W-SW 245 0 min 46 W/m 5,2 C 3,7 C 17,7 km/h (3 Bft)
26.12.2019 10:27 5,8 C 96 % 1022,2 hPa 0,0 l/m 8,1 km/h (2 Bft) SW 226 0 min 46 W/m 5,2 C 4,4 C 17,7 km/h (3 Bft)
26.12.2019 10:30 5,8 C 96 % 1022,2 hPa 0,0 l/m 5,2 km/h (1 Bft) SW 227 0 min 46 W/m 5,2 C 5,8 C 9,7 km/h (2 Bft)
26.12.2019 10:33 5,9 C 96 % 1022,2 hPa 0,0 l/m 6,4 km/h (2 Bft) SW 229 0 min 44 W/m 5,3 C 5,9 C 11,3 km/h (2 Bft)
26.12.2019 10:36 5,9 C 96 % 1022,2 hPa 0,0 l/m 6,7 km/h (2 Bft) W-SW 239 0 min 46 W/m 5,3 C 5,7 C 14,5 km/h (3 Bft)
26.12.2019 10:39 5,9 C 96 % 1022,2 hPa 0,0 l/m 7,0 km/h (2 Bft) W-SW 250 0 min 46 W/m 5,3 C 5,4 C 14,5 km/h (3 Bft)
26.12.2019 10:42 5,9 C 96 % 1022,2 hPa 0,0 l/m 6,3 km/h (2 Bft) W-SW 246 0 min 40 W/m 5,3 C 5,9 C 14,5 km/h (3 Bft)
26.12.2019 10:45 5,9 C 96 % 1022,2 hPa 0,0 l/m 6,3 km/h (2 Bft) W-SW 246 0 min 35 W/m 5,3 C 5,9 C 11,3 km/h (2 Bft)
26.12.2019 10:48 5,9 C 96 % 1022,2 hPa 0,0 l/m 8,6 km/h (2 Bft) W-SW 241 0 min 33 W/m 5,3 C 4,1 C 14,5 km/h (3 Bft)
26.12.2019 10:51 5,9 C 96 % 1022,2 hPa 0,0 l/m 7,0 km/h (2 Bft) W-SW 241 0 min 32 W/m 5,3 C 5,4 C 12,9 km/h (3 Bft)
26.12.2019 10:54 5,9 C 96 % 1022,2 hPa 0,0 l/m 7,4 km/h (2 Bft) W-SW 239 0 min 32 W/m 5,3 C 5,0 C 14,5 km/h (3 Bft)
26.12.2019 10:57 5,9 C 96 % 1022,2 hPa 0,0 l/m 7,5 km/h (2 Bft) W-SW 239 0 min 32 W/m 5,3 C 5,0 C 9,7 km/h (2 Bft)
26.12.2019 11:00 5,9 C 96 % 1022,2 hPa 0,0 l/m 8,2 km/h (2 Bft) W-SW 238 0 min 35 W/m 5,3 C 4,4 C 14,5 km/h (3 Bft)
26.12.2019 11:03 5,9 C 96 % 1022,2 hPa 0,0 l/m 5,9 km/h (2 Bft) W-SW 238 0 min 37 W/m 5,3 C 5,9 C 12,9 km/h (3 Bft)
26.12.2019 11:06 6,0 C 96 % 1022,2 hPa 0,0 l/m 4,4 km/h (1 Bft) W-SW 238 0 min 32 W/m 5,4 C 6,0 C 8,0 km/h (2 Bft)
26.12.2019 11:09 6,0 C 96 % 1022,1 hPa 0,0 l/m 4,5 km/h (1 Bft) W-SW 238 0 min 35 W/m 5,4 C 6,0 C 9,7 km/h (2 Bft)
26.12.2019 11:12 6,0 C 96 % 1022,1 hPa 0,0 l/m 4,6 km/h (1 Bft) W-SW 238 0 min 37 W/m 5,4 C 6,0 C 12,9 km/h (3 Bft)
26.12.2019 11:15 6,0 C 96 % 1022,2 hPa 0,0 l/m 5,8 km/h (2 Bft) W-SW 243 0 min 35 W/m 5,4 C 6,0 C 8,0 km/h (2 Bft)
26.12.2019 11:18 6,0 C 96 % 1022,1 hPa 0,2 l/m 6,7 km/h (2 Bft) W 275 0 min 26 W/m 5,4 C 5,8 C 14,5 km/h (3 Bft)
26.12.2019 11:21 6,0 C 95 % 1022,2 hPa 0,2 l/m 6,2 km/h (2 Bft) W 266 0 min 21 W/m 5,3 C 6,0 C 11,3 km/h (2 Bft)
26.12.2019 11:24 6,0 C 95 % 1022,2 hPa 0,0 l/m 5,4 km/h (2 Bft) SW 220 0 min 25 W/m 5,3 C 6,0 C 8,0 km/h (2 Bft)
26.12.2019 11:27 6,0 C 95 % 1022,2 hPa 0,0 l/m 5,1 km/h (1 Bft) SW 220 0 min 19 W/m 5,3 C 6,0 C 8,0 km/h (2 Bft)
26.12.2019 11:30 6,0 C 95 % 1022,2 hPa 0,0 l/m 5,6 km/h (2 Bft) SW 219 0 min 26 W/m 5,3 C 6,0 C 9,7 km/h (2 Bft)
26.12.2019 11:33 6,0 C 96 % 1022,1 hPa 0,2 l/m 9,2 km/h (2 Bft) SW 219 0 min 19 W/m 5,4 C 3,7 C 14,5 km/h (3 Bft)
26.12.2019 11:36 6,0 C 96 % 1022,2 hPa 0,0 l/m 6,1 km/h (2 Bft) SW 220 0 min 25 W/m 5,4 C 6,0 C 8,0 km/h (2 Bft)
26.12.2019 11:39 6,0 C 96 % 1022,1 hPa 0,0 l/m 7,3 km/h (2 Bft) SW 219 0 min 26 W/m 5,4 C 5,2 C 9,7 km/h (2 Bft)
26.12.2019 11:42 6,0 C 96 % 1022,1 hPa 0,0 l/m 5,2 km/h (1 Bft) SW 219 0 min 28 W/m 5,4 C 6,0 C 8,0 km/h (2 Bft)
26.12.2019 11:45 6,0 C 96 % 1022,0 hPa 0,0 l/m 3,9 km/h (1 Bft) SW 219 0 min 42 W/m 5,4 C 6,0 C 6,4 km/h (2 Bft)
26.12.2019 11:48 6,0 C 96 % 1022,0 hPa 0,0 l/m 3,7 km/h (1 Bft) SW 219 0 min 40 W/m 5,4 C 6,0 C 4,8 km/h (1 Bft)
26.12.2019 11:51 6,0 C 96 % 1022,0 hPa 0,0 l/m 4,8 km/h (1 Bft) SW 219 0 min 32 W/m 5,4 C 6,0 C 6,4 km/h (2 Bft)
26.12.2019 11:54 6,0 C 96 % 1021,9 hPa 0,0 l/m 5,2 km/h (1 Bft) SW 219 0 min 32 W/m 5,4 C 6,0 C 9,7 km/h (2 Bft)
26.12.2019 11:57 6,0 C 96 % 1021,9 hPa 0,0 l/m 4,5 km/h (1 Bft) SW 219 0 min 35 W/m 5,4 C 6,0 C 6,4 km/h (2 Bft)
26.12.2019 12:00 5,9 C 95 % 1021,8 hPa 0,0 l/m 6,1 km/h (2 Bft) SW 219 0 min 40 W/m 5,2 C 5,9 C 8,0 km/h (2 Bft)
26.12.2019 12:03 5,9 C 95 % 1021,8 hPa 0,0 l/m 4,5 km/h (1 Bft) SW 219 0 min 54 W/m 5,2 C 5,9 C 8,0 km/h (2 Bft)
26.12.2019 12:06 5,9 C 95 % 1021,8 hPa 0,0 l/m 5,4 km/h (2 Bft) SW 219 0 min 51 W/m 5,2 C 5,9 C 8,0 km/h (2 Bft)
26.12.2019 12:09 5,9 C 96 % 1021,8 hPa 0,0 l/m 4,6 km/h (1 Bft) SW 219 0 min 60 W/m 5,3 C 5,9 C 6,4 km/h (2 Bft)
26.12.2019 12:12 5,9 C 96 % 1021,8 hPa 0,0 l/m 6,0 km/h (2 Bft) SW 219 0 min 56 W/m 5,3 C 5,9 C 9,7 km/h (2 Bft)
26.12.2019 12:15 5,9 C 96 % 1021,7 hPa 0,0 l/m 5,8 km/h (2 Bft) SW 219 0 min 46 W/m 5,3 C 5,9 C 9,7 km/h (2 Bft)
26.12.2019 12:18 5,8 C 96 % 1021,7 hPa 0,0 l/m 6,4 km/h (2 Bft) SW 219 3 min 158 W/m 5,2 C 5,8 C 9,7 km/h (2 Bft)
26.12.2019 12:21 5,9 C 96 % 1021,7 hPa 0,0 l/m 5,0 km/h (1 Bft) SW 219 0 min 39 W/m 5,3 C 5,9 C 8,0 km/h (2 Bft)
26.12.2019 12:24 5,9 C 96 % 1021,7 hPa 0,0 l/m 4,3 km/h (1 Bft) SW 219 0 min 74 W/m 5,3 C 5,9 C 8,0 km/h (2 Bft)
26.12.2019 12:27 5,9 C 96 % 1021,7 hPa 0,0 l/m 4,3 km/h (1 Bft) SW 219 3 min 163 W/m 5,3 C 5,9 C 6,4 km/h (2 Bft)
26.12.2019 12:30 5,9 C 96 % 1021,7 hPa 0,0 l/m 5,1 km/h (1 Bft) SW 219 3 min 193 W/m 5,3 C 5,9 C 8,0 km/h (2 Bft)
26.12.2019 12:33 6,0 C 96 % 1021,6 hPa 0,0 l/m 3,6 km/h (1 Bft) SW 219 3 min 146 W/m 5,4 C 6,0 C 6,4 km/h (2 Bft)
26.12.2019 12:36 6,1 C 96 % 1021,6 hPa 0,0 l/m 5,5 km/h (2 Bft) SW 219 0 min 123 W/m 5,5 C 6,1 C 9,7 km/h (2 Bft)
26.12.2019 12:39 6,1 C 96 % 1021,6 hPa 0,0 l/m 4,1 km/h (1 Bft) SW 221 0 min 63 W/m 5,5 C 6,1 C 9,7 km/h (2 Bft)
26.12.2019 12:42 6,2 C 96 % 1021,6 hPa 0,0 l/m 4,1 km/h (1 Bft) SW 221 0 min 53 W/m 5,6 C 6,2 C 8,0 km/h (2 Bft)
26.12.2019 12:45 6,2 C 96 % 1021,6 hPa 0,0 l/m 5,2 km/h (1 Bft) SW 221 0 min 58 W/m 5,6 C 6,2 C 9,7 km/h (2 Bft)
26.12.2019 12:48 6,2 C 96 % 1021,6 hPa 0,0 l/m 4,3 km/h (1 Bft) SW 221 0 min 58 W/m 5,6 C 6,2 C 6,4 km/h (2 Bft)
26.12.2019 12:51 6,3 C 96 % 1021,6 hPa 0,0 l/m 4,7 km/h (1 Bft) SW 222 0 min 32 W/m 5,7 C 6,3 C 8,0 km/h (2 Bft)
26.12.2019 12:54 6,3 C 96 % 1021,6 hPa 0,0 l/m 5,0 km/h (1 Bft) SW 222 0 min 32 W/m 5,7 C 6,3 C 6,4 km/h (2 Bft)
26.12.2019 12:57 6,3 C 96 % 1021,6 hPa 0,0 l/m 4,2 km/h (1 Bft) SW 221 0 min 44 W/m 5,7 C 6,3 C 9,7 km/h (2 Bft)
26.12.2019 13:00 6,3 C 96 % 1021,5 hPa 0,0 l/m 5,3 km/h (1 Bft) SW 222 0 min 56 W/m 5,7 C 6,3 C 9,7 km/h (2 Bft)
26.12.2019 13:03 6,3 C 96 % 1021,5 hPa 0,0 l/m 4,2 km/h (1 Bft) SW 222 0 min 56 W/m 5,7 C 6,3 C 6,4 km/h (2 Bft)
26.12.2019 13:06 6,2 C 96 % 1021,5 hPa 0,0 l/m 3,7 km/h (1 Bft) SW 222 0 min 65 W/m 5,6 C 6,2 C 8,0 km/h (2 Bft)
26.12.2019 13:09 6,2 C 96 % 1021,5 hPa 0,0 l/m 4,4 km/h (1 Bft) SW 222 0 min 58 W/m 5,6 C 6,2 C 6,4 km/h (2 Bft)
26.12.2019 13:12 6,3 C 96 % 1021,5 hPa 0,0 l/m 2,1 km/h (1 Bft) SW 222 0 min 46 W/m 5,7 C 6,3 C 4,8 km/h (1 Bft)
26.12.2019 13:15 6,3 C 96 % 1021,5 hPa 0,0 l/m 1,3 km/h (1 Bft) SW 222 0 min 53 W/m 5,7 C 6,3 C 3,2 km/h (1 Bft)
26.12.2019 13:18 6,3 C 96 % 1021,5 hPa 0,0 l/m 3,8 km/h (1 Bft) SW 222 0 min 62 W/m 5,7 C 6,3 C 6,4 km/h (2 Bft)
26.12.2019 13:21 6,3 C 96 % 1021,5 hPa 0,0 l/m 2,6 km/h (1 Bft) SW 222 0 min 70 W/m 5,7 C 6,3 C 4,8 km/h (1 Bft)
26.12.2019 13:24 6,3 C 96 % 1021,4 hPa 0,0 l/m 3,5 km/h (1 Bft) SW 222 0 min 72 W/m 5,7 C 6,3 C 11,3 km/h (2 Bft)
26.12.2019 13:27 6,3 C 96 % 1021,5 hPa 0,0 l/m 4,1 km/h (1 Bft) SW 222 0 min 53 W/m 5,7 C 6,3 C 6,4 km/h (2 Bft)
26.12.2019 13:30 6,3 C 96 % 1021,4 hPa 0,0 l/m 4,5 km/h (1 Bft) SW 222 0 min 40 W/m 5,7 C 6,3 C 6,4 km/h (2 Bft)
26.12.2019 13:33 6,3 C 96 % 1021,4 hPa 0,0 l/m 5,1 km/h (1 Bft) SW 222 0 min 28 W/m 5,7 C 6,3 C 8,0 km/h (2 Bft)
26.12.2019 13:36 6,3 C 96 % 1021,4 hPa 0,0 l/m 5,1 km/h (1 Bft) SW 222 0 min 23 W/m 5,7 C 6,3 C 11,3 km/h (2 Bft)
26.12.2019 13:39 6,3 C 96 % 1021,4 hPa 0,0 l/m 4,9 km/h (1 Bft) SW 226 0 min 21 W/m 5,7 C 6,3 C 9,7 km/h (2 Bft)
26.12.2019 13:42 6,3 C 96 % 1021,4 hPa 0,0 l/m 3,9 km/h (1 Bft) SW 226 0 min 23 W/m 5,7 C 6,3 C 6,4 km/h (2 Bft)
26.12.2019 13:45 6,3 C 96 % 1021,4 hPa 0,0 l/m 4,4 km/h (1 Bft) SW 227 0 min 32 W/m 5,7 C 6,3 C 9,7 km/h (2 Bft)
26.12.2019 13:48 6,3 C 96 % 1021,4 hPa 0,0 l/m 5,7 km/h (2 Bft) SW 227 0 min 37 W/m 5,7 C 6,3 C 9,7 km/h (2 Bft)
26.12.2019 13:51 6,2 C 96 % 1021,4 hPa 0,0 l/m 5,0 km/h (1 Bft) SW 226 0 min 39 W/m 5,6 C 6,2 C 9,7 km/h (2 Bft)
26.12.2019 13:54 6,2 C 96 % 1021,4 hPa 0,0 l/m 6,0 km/h (2 Bft) SW 227 0 min 37 W/m 5,6 C 6,2 C 9,7 km/h (2 Bft)
26.12.2019 13:57 6,2 C 96 % 1021,4 hPa 0,0 l/m 5,9 km/h (2 Bft) SW 227 0 min 37 W/m 5,6 C 6,2 C 9,7 km/h (2 Bft)
26.12.2019 14:00 6,2 C 96 % 1021,4 hPa 0,0 l/m 7,1 km/h (2 Bft) SW 229 0 min 39 W/m 5,6 C 5,6 C 11,3 km/h (2 Bft)
26.12.2019 14:03 6,2 C 96 % 1021,4 hPa 0,0 l/m 5,5 km/h (2 Bft) SW 229 0 min 35 W/m 5,6 C 6,2 C 9,7 km/h (2 Bft)
26.12.2019 14:06 6,2 C 96 % 1021,4 hPa 0,0 l/m 5,7 km/h (2 Bft) SW 228 0 min 33 W/m 5,6 C 6,2 C 9,7 km/h (2 Bft)
26.12.2019 14:09 6,2 C 96 % 1021,4 hPa 0,0 l/m 7,6 km/h (2 Bft) SW 227 0 min 28 W/m 5,6 C 5,2 C 11,3 km/h (2 Bft)
26.12.2019 14:12 6,2 C 96 % 1021,4 hPa 0,0 l/m 5,5 km/h (2 Bft) SW 227 0 min 25 W/m 5,6 C 6,2 C 9,7 km/h (2 Bft)
26.12.2019 14:15 6,2 C 96 % 1021,3 hPa 0,0 l/m 3,8 km/h (1 Bft) SW 227 0 min 21 W/m 5,6 C 6,2 C 6,4 km/h (2 Bft)
26.12.2019 14:18 6,2 C 96 % 1021,3 hPa 0,2 l/m 2,9 km/h (1 Bft) SW 227 0 min 19 W/m 5,6 C 6,2 C 6,4 km/h (2 Bft)
26.12.2019 14:21 6,2 C 96 % 1021,2 hPa 0,0 l/m 2,9 km/h (1 Bft) SW 227 0 min 19 W/m 5,6 C 6,2 C 6,4 km/h (2 Bft)
26.12.2019 14:24 6,2 C 96 % 1021,3 hPa 0,0 l/m 6,2 km/h (2 Bft) S 183 0 min 19 W/m 5,6 C 6,2 C 11,3 km/h (2 Bft)
26.12.2019 14:27 6,1 C 96 % 1021,2 hPa 0,0 l/m 6,0 km/h (2 Bft) W-SW 257 0 min 19 W/m 5,5 C 6,1 C 11,3 km/h (2 Bft)
26.12.2019 14:30 6,1 C 96 % 1021,2 hPa 0,0 l/m 3,0 km/h (1 Bft) W-SW 257 0 min 19 W/m 5,5 C 6,1 C 6,4 km/h (2 Bft)
26.12.2019 14:33 6,1 C 96 % 1021,2 hPa 0,0 l/m 3,2 km/h (1 Bft) W-SW 257 0 min 18 W/m 5,5 C 6,1 C 6,4 km/h (2 Bft)
26.12.2019 14:36 6,1 C 96 % 1021,2 hPa 0,0 l/m 3,1 km/h (1 Bft) W-SW 257 0 min 18 W/m 5,5 C 6,1 C 4,8 km/h (1 Bft)
26.12.2019 14:39 6,1 C 96 % 1021,1 hPa 0,0 l/m 3,3 km/h (1 Bft) W-SW 257 0 min 16 W/m 5,5 C 6,1 C 4,8 km/h (1 Bft)
26.12.2019 14:42 6,1 C 96 % 1021,1 hPa 0,0 l/m 2,9 km/h (1 Bft) W-SW 257 0 min 18 W/m 5,5 C 6,1 C 4,8 km/h (1 Bft)
26.12.2019 14:45 6,0 C 96 % 1021,2 hPa 0,0 l/m 2,4 km/h (1 Bft) W-SW 257 0 min 18 W/m 5,4 C 6,0 C 4,8 km/h (1 Bft)
26.12.2019 14:48 6,0 C 96 % 1021,2 hPa 0,0 l/m 2,2 km/h (1 Bft) W-SW 257 0 min 19 W/m 5,4 C 6,0 C 3,2 km/h (1 Bft)
26.12.2019 14:51 6,0 C 96 % 1021,2 hPa 0,0 l/m 3,6 km/h (1 Bft) W-SW 257 0 min 19 W/m 5,4 C 6,0 C 6,4 km/h (2 Bft)
26.12.2019 14:54 6,0 C 96 % 1021,2 hPa 0,0 l/m 5,3 km/h (1 Bft) W-SW 253 0 min 18 W/m 5,4 C 6,0 C 11,3 km/h (2 Bft)
26.12.2019 14:57 5,9 C 96 % 1021,1 hPa 0,0 l/m 5,1 km/h (1 Bft) W-SW 252 0 min 16 W/m 5,3 C 5,9 C 8,0 km/h (2 Bft)
26.12.2019 15:00 5,9 C 96 % 1021,1 hPa 0,0 l/m 4,7 km/h (1 Bft) W-SW 252 0 min 18 W/m 5,3 C 5,9 C 6,4 km/h (2 Bft)
26.12.2019 15:03 5,9 C 96 % 1021,1 hPa 0,0 l/m 3,2 km/h (1 Bft) W-SW 252 0 min 18 W/m 5,3 C 5,9 C 6,4 km/h (2 Bft)
26.12.2019 15:06 5,9 C 96 % 1021,1 hPa 0,0 l/m 4,1 km/h (1 Bft) W-SW 252 0 min 18 W/m 5,3 C 5,9 C 11,3 km/h (2 Bft)
26.12.2019 15:09 5,8 C 96 % 1021,1 hPa 0,0 l/m 5,3 km/h (1 Bft) W-SW 252 0 min 18 W/m 5,2 C 5,8 C 8,0 km/h (2 Bft)
26.12.2019 15:12 5,8 C 96 % 1021,1 hPa 0,0 l/m 5,4 km/h (2 Bft) W-SW 252 0 min 18 W/m 5,2 C 5,8 C 8,0 km/h (2 Bft)
26.12.2019 15:15 5,7 C 96 % 1021,1 hPa 0,0 l/m 5,3 km/h (1 Bft) W-SW 252 0 min 18 W/m 5,1 C 5,7 C 8,0 km/h (2 Bft)
26.12.2019 15:18 5,7 C 95 % 1021,1 hPa 0,0 l/m 3,6 km/h (1 Bft) W-SW 252 0 min 18 W/m 5,0 C 5,7 C 6,4 km/h (2 Bft)
26.12.2019 15:21 5,6 C 95 % 1021,1 hPa 0,0 l/m 2,6 km/h (1 Bft) W-SW 252 0 min 18 W/m 4,9 C 5,6 C 4,8 km/h (1 Bft)
26.12.2019 15:24 5,6 C 95 % 1021,2 hPa 0,0 l/m 2,7 km/h (1 Bft) W-SW 252 0 min 16 W/m 4,9 C 5,6 C 4,8 km/h (1 Bft)
26.12.2019 15:27 5,6 C 95 % 1021,2 hPa 0,0 l/m 2,7 km/h (1 Bft) W-SW 252 0 min 16 W/m 4,9 C 5,6 C 4,8 km/h (1 Bft)
26.12.2019 15:30 5,6 C 95 % 1021,1 hPa 0,0 l/m 2,7 km/h (1 Bft) W-SW 252 0 min 14 W/m 4,9 C 5,6 C 4,8 km/h (1 Bft)
26.12.2019 15:33 5,5 C 95 % 1021,1 hPa 0,0 l/m 3,1 km/h (1 Bft) W-SW 252 0 min 14 W/m 4,8 C 5,5 C 4,8 km/h (1 Bft)
26.12.2019 15:36 5,4 C 95 % 1021,1 hPa 0,0 l/m 1,9 km/h (1 Bft) W-SW 252 0 min 12 W/m 4,7 C 5,4 C 4,8 km/h (1 Bft)
26.12.2019 15:39 5,4 C 95 % 1021,1 hPa 0,0 l/m 2,2 km/h (1 Bft) W-SW 252 0 min 12 W/m 4,7 C 5,4 C 3,2 km/h (1 Bft)
26.12.2019 15:42 5,4 C 95 % 1021,1 hPa 0,0 l/m 2,7 km/h (1 Bft) W-SW 252 0 min 11 W/m 4,7 C 5,4 C 3,2 km/h (1 Bft)
26.12.2019 15:45 5,3 C 95 % 1021,1 hPa 0,0 l/m 2,5 km/h (1 Bft) W-SW 252 0 min 9 W/m 4,6 C 5,3 C 4,8 km/h (1 Bft)
26.12.2019 15:48 5,3 C 95 % 1021,1 hPa 0,0 l/m 1,5 km/h (1 Bft) W-SW 252 0 min 7 W/m 4,6 C 5,3 C 3,2 km/h (1 Bft)
26.12.2019 15:51 5,2 C 95 % 1021,1 hPa 0,0 l/m 2,0 km/h (1 Bft) W-SW 252 0 min 7 W/m 4,5 C 5,2 C 4,8 km/h (1 Bft)
26.12.2019 15:54 5,1 C 95 % 1021,2 hPa 0,0 l/m 3,1 km/h (1 Bft) W-SW 252 0 min 5 W/m 4,4 C 5,1 C 4,8 km/h (1 Bft)
26.12.2019 15:57 5,1 C 95 % 1021,2 hPa 0,0 l/m 2,5 km/h (1 Bft) W-SW 252 0 min 5 W/m 4,4 C 5,1 C 4,8 km/h (1 Bft)
26.12.2019 16:00 5,0 C 95 % 1021,2 hPa 0,0 l/m 2,1 km/h (1 Bft) W-SW 252 0 min 0 W/m 4,3 C 5,0 C 3,2 km/h (1 Bft)
26.12.2019 16:03 4,9 C 95 % 1021,1 hPa 0,0 l/m 2,1 km/h (1 Bft) W-SW 252 0 min 0 W/m 4,2 C 4,9 C 3,2 km/h (1 Bft)
26.12.2019 16:06 4,9 C 95 % 1021,2 hPa 0,0 l/m 2,5 km/h (1 Bft) W-SW 252 0 min 0 W/m 4,2 C 4,9 C 4,8 km/h (1 Bft)
26.12.2019 16:09 4,9 C 95 % 1021,2 hPa 0,0 l/m 1,8 km/h (1 Bft) W-SW 252 0 min 0 W/m 4,2 C 4,9 C 3,2 km/h (1 Bft)
26.12.2019 16:12 4,8 C 95 % 1021,2 hPa 0,0 l/m 1,6 km/h (1 Bft) W-SW 252 0 min 0 W/m 4,1 C 4,8 C 3,2 km/h (1 Bft)
26.12.2019 16:15 4,8 C 95 % 1021,2 hPa 0,2 l/m 2,0 km/h (1 Bft) W-SW 252 0 min 0 W/m 4,1 C 4,8 C 3,2 km/h (1 Bft)
26.12.2019 16:18 4,7 C 95 % 1021,2 hPa 0,0 l/m 2,9 km/h (1 Bft) W-SW 252 0 min 0 W/m 4,0 C 4,7 C 4,8 km/h (1 Bft)
26.12.2019 16:21 4,7 C 95 % 1021,2 hPa 0,0 l/m 2,7 km/h (1 Bft) W-SW 252 0 min 0 W/m 4,0 C 4,7 C 4,8 km/h (1 Bft)
26.12.2019 16:24 4,6 C 95 % 1021,2 hPa 0,0 l/m 2,8 km/h (1 Bft) W-SW 252 0 min 0 W/m 3,9 C 4,6 C 4,8 km/h (1 Bft)
26.12.2019 16:27 4,6 C 95 % 1021,2 hPa 0,0 l/m 2,3 km/h (1 Bft) W-SW 252 0 min 0 W/m 3,9 C 4,6 C 3,2 km/h (1 Bft)
26.12.2019 16:30 4,6 C 95 % 1021,1 hPa 0,0 l/m 2,8 km/h (1 Bft) W-SW 252 0 min 0 W/m 3,9 C 4,6 C 4,8 km/h (1 Bft)
26.12.2019 16:33 4,5 C 95 % 1021,1 hPa 0,0 l/m 2,4 km/h (1 Bft) W-SW 252 0 min 0 W/m 3,8 C 4,5 C 3,2 km/h (1 Bft)
26.12.2019 16:36 4,5 C 95 % 1021,2 hPa 0,0 l/m 2,6 km/h (1 Bft) W-SW 252 0 min 0 W/m 3,8 C 4,5 C 3,2 km/h (1 Bft)
26.12.2019 16:39 4,4 C 95 % 1021,2 hPa 0,0 l/m 1,6 km/h (1 Bft) W-SW 252 0 min 0 W/m 3,7 C 4,4 C 3,2 km/h (1 Bft)
26.12.2019 16:42 4,4 C 95 % 1021,2 hPa 0,0 l/m 1,3 km/h (1 Bft) W-SW 252 0 min 0 W/m 3,7 C 4,4 C 3,2 km/h (1 Bft)
26.12.2019 16:45 4,4 C 95 % 1021,2 hPa 0,0 l/m 2,0 km/h (1 Bft) W-SW 252 0 min 0 W/m 3,7 C 4,4 C 3,2 km/h (1 Bft)
26.12.2019 16:48 4,4 C 95 % 1021,1 hPa 0,0 l/m 1,5 km/h (1 Bft) W-SW 252 0 min 0 W/m 3,7 C 4,4 C 3,2 km/h (1 Bft)
26.12.2019 16:51 4,4 C 95 % 1021,2 hPa 0,0 l/m 0,2 km/h (0 Bft) W-SW 252 0 min 0 W/m 3,7 C 4,4 C 1,6 km/h (1 Bft)
26.12.2019 16:54 4,3 C 95 % 1021,2 hPa 0,0 l/m 0,2 km/h (0 Bft) W-SW 252 0 min 0 W/m 3,6 C 4,3 C 1,6 km/h (1 Bft)
26.12.2019 16:57 4,3 C 95 % 1021,2 hPa 0,0 l/m 0,3 km/h (0 Bft) W-SW 252 0 min 0 W/m 3,6 C 4,3 C 1,6 km/h (1 Bft)
26.12.2019 17:00 4,3 C 95 % 1021,2 hPa 0,0 l/m 0,5 km/h (0 Bft) W-SW 252 0 min 0 W/m 3,6 C 4,3 C 1,6 km/h (1 Bft)
26.12.2019 17:03 4,3 C 95 % 1021,2 hPa 0,0 l/m 0,0 km/h (0 Bft) W-SW 252 0 min 0 W/m 3,6 C 4,3 C 0,0 km/h (0 Bft)
26.12.2019 17:06 4,2 C 95 % 1021,2 hPa 0,0 l/m 0,0 km/h (0 Bft) W-SW 252 0 min 0 W/m 3,5 C 4,2 C 1,6 km/h (1 Bft)
26.12.2019 17:09 4,2 C 95 % 1021,2 hPa 0,0 l/m 0,5 km/h (0 Bft) W-SW 252 0 min 0 W/m 3,5 C 4,2 C 1,6 km/h (1 Bft)
26.12.2019 17:12 4,2 C 95 % 1021,2 hPa 0,0 l/m 2,6 km/h (1 Bft) W-SW 252 0 min 0 W/m 3,5 C 4,2 C 4,8 km/h (1 Bft)
26.12.2019 17:15 4,1 C 95 % 1021,2 hPa 0,0 l/m 2,8 km/h (1 Bft) W-SW 252 0 min 0 W/m 3,4 C 4,1 C 4,8 km/h (1 Bft)
26.12.2019 17:18 4,1 C 95 % 1021,2 hPa 0,0 l/m 1,5 km/h (1 Bft) W-SW 252 0 min 0 W/m 3,4 C 4,1 C 3,2 km/h (1 Bft)
26.12.2019 17:21 4,1 C 95 % 1021,2 hPa 0,0 l/m 2,4 km/h (1 Bft) W-SW 252 0 min 0 W/m 3,4 C 4,1 C 3,2 km/h (1 Bft)
26.12.2019 17:24 4,1 C 95 % 1021,3 hPa 0,0 l/m 1,0 km/h (0 Bft) W-SW 252 0 min 0 W/m 3,4 C 4,1 C 4,8 km/h (1 Bft)
26.12.2019 17:27 4,1 C 95 % 1021,4 hPa 0,0 l/m 0,8 km/h (0 Bft) W-SW 252 0 min 0 W/m 3,4 C 4,1 C 3,2 km/h (1 Bft)
26.12.2019 17:30 4,1 C 95 % 1021,4 hPa 0,0 l/m 0,8 km/h (0 Bft) W-SW 252 0 min 0 W/m 3,4 C 4,1 C 3,2 km/h (1 Bft)
26.12.2019 17:33 4,0 C 95 % 1021,4 hPa 0,0 l/m 0,3 km/h (0 Bft) W-SW 252 0 min 0 W/m 3,3 C 4,0 C 1,6 km/h (1 Bft)
26.12.2019 17:36 4,0 C 95 % 1021,4 hPa 0,0 l/m 0,1 km/h (0 Bft) W-SW 252 0 min 0 W/m 3,3 C 4,0 C 1,6 km/h (1 Bft)
26.12.2019 17:39 4,0 C 95 % 1021,4 hPa 0,0 l/m 0,5 km/h (0 Bft) W-SW 252 0 min 0 W/m 3,3 C 4,0 C 3,2 km/h (1 Bft)
26.12.2019 17:42 4,0 C 95 % 1021,4 hPa 0,0 l/m 2,1 km/h (1 Bft) W-SW 252 0 min 0 W/m 3,3 C 4,0 C 3,2 km/h (1 Bft)
26.12.2019 17:45 4,0 C 95 % 1021,4 hPa 0,0 l/m 1,9 km/h (1 Bft) W-SW 252 0 min 0 W/m 3,3 C 4,0 C 3,2 km/h (1 Bft)
26.12.2019 17:48 4,0 C 95 % 1021,4 hPa 0,0 l/m 2,3 km/h (1 Bft) W-SW 252 0 min 0 W/m 3,3 C 4,0 C 3,2 km/h (1 Bft)
26.12.2019 17:51 4,0 C 95 % 1021,4 hPa 0,0 l/m 2,1 km/h (1 Bft) W-SW 252 0 min 0 W/m 3,3 C 4,0 C 3,2 km/h (1 Bft)
26.12.2019 17:54 4,0 C 95 % 1021,3 hPa 0,0 l/m 1,9 km/h (1 Bft) W-SW 252 0 min 0 W/m 3,3 C 4,0 C 3,2 km/h (1 Bft)
26.12.2019 17:57 4,0 C 95 % 1021,3 hPa 0,0 l/m 2,0 km/h (1 Bft) W-SW 252 0 min 0 W/m 3,3 C 4,0 C 3,2 km/h (1 Bft)
26.12.2019 18:00 4,0 C 95 % 1021,3 hPa 0,0 l/m 2,8 km/h (1 Bft) W-SW 252 0 min 0 W/m 3,3 C 4,0 C 3,2 km/h (1 Bft)
26.12.2019 18:03 4,0 C 95 % 1021,4 hPa 0,0 l/m 2,9 km/h (1 Bft) W-SW 252 0 min 0 W/m 3,3 C 4,0 C 4,8 km/h (1 Bft)
26.12.2019 18:06 4,0 C 95 % 1021,4 hPa 0,0 l/m 3,0 km/h (1 Bft) W-SW 252 0 min 0 W/m 3,3 C 4,0 C 4,8 km/h (1 Bft)
26.12.2019 18:09 3,9 C 95 % 1021,3 hPa 0,0 l/m 2,5 km/h (1 Bft) W-SW 252 0 min 0 W/m 3,2 C 3,9 C 3,2 km/h (1 Bft)
26.12.2019 18:12 3,9 C 95 % 1021,3 hPa 0,0 l/m 1,8 km/h (1 Bft) W-SW 252 0 min 0 W/m 3,2 C 3,9 C 3,2 km/h (1 Bft)
26.12.2019 18:15 3,9 C 95 % 1021,3 hPa 0,0 l/m 2,3 km/h (1 Bft) W-SW 252 0 min 0 W/m 3,2 C 3,9 C 3,2 km/h (1 Bft)
26.12.2019 18:18 3,9 C 95 % 1021,4 hPa 0,0 l/m 3,2 km/h (1 Bft) W-SW 252 0 min 0 W/m 3,2 C 3,9 C 4,8 km/h (1 Bft)
26.12.2019 18:21 3,9 C 95 % 1021,3 hPa 0,0 l/m 3,5 km/h (1 Bft) W-SW 252 0 min 0 W/m 3,2 C 3,9 C 4,8 km/h (1 Bft)
26.12.2019 18:24 3,8 C 95 % 1021,3 hPa 0,0 l/m 3,4 km/h (1 Bft) W-SW 252 0 min 0 W/m 3,1 C 3,8 C 4,8 km/h (1 Bft)
26.12.2019 18:27 3,8 C 95 % 1021,3 hPa 0,0 l/m 3,8 km/h (1 Bft) W-SW 252 0 min 0 W/m 3,1 C 3,8 C 6,4 km/h (2 Bft)
26.12.2019 18:30 3,8 C 95 % 1021,4 hPa 0,0 l/m 4,0 km/h (1 Bft) W-SW 252 0 min 0 W/m 3,1 C 3,8 C 6,4 km/h (2 Bft)
26.12.2019 18:33 3,8 C 95 % 1021,4 hPa 0,0 l/m 4,8 km/h (1 Bft) W-SW 252 0 min 0 W/m 3,1 C 3,8 C 6,4 km/h (2 Bft)
26.12.2019 18:36 3,8 C 95 % 1021,4 hPa 0,0 l/m 4,4 km/h (1 Bft) W-SW 252 0 min 0 W/m 3,1 C 3,8 C 6,4 km/h (2 Bft)
26.12.2019 18:39 3,8 C 95 % 1021,4 hPa 0,0 l/m 4,2 km/h (1 Bft) W-SW 252 0 min 0 W/m 3,1 C 3,8 C 6,4 km/h (2 Bft)
26.12.2019 18:42 3,8 C 95 % 1021,4 hPa 0,0 l/m 3,7 km/h (1 Bft) W-SW 252 0 min 0 W/m 3,1 C 3,8 C 4,8 km/h (1 Bft)
26.12.2019 18:45 3,8 C 95 % 1021,4 hPa 0,0 l/m 5,0 km/h (1 Bft) W-SW 252 0 min 0 W/m 3,1 C 3,8 C 8,0 km/h (2 Bft)
26.12.2019 18:48 3,8 C 95 % 1021,4 hPa 0,0 l/m 5,3 km/h (1 Bft) W-SW 252 0 min 0 W/m 3,1 C 3,8 C 6,4 km/h (2 Bft)
26.12.2019 18:51 3,8 C 95 % 1021,4 hPa 0,0 l/m 4,1 km/h (1 Bft) W-SW 252 0 min 0 W/m 3,1 C 3,8 C 4,8 km/h (1 Bft)
26.12.2019 18:54 3,8 C 95 % 1021,4 hPa 0,0 l/m 3,1 km/h (1 Bft) W-SW 252 0 min 0 W/m 3,1 C 3,8 C 4,8 km/h (1 Bft)
26.12.2019 18:57 3,8 C 95 % 1021,5 hPa 0,0 l/m 2,9 km/h (1 Bft) W-SW 252 0 min 0 W/m 3,1 C 3,8 C 4,8 km/h (1 Bft)
26.12.2019 19:00 3,8 C 95 % 1021,5 hPa 0,0 l/m 2,2 km/h (1 Bft) W-SW 252 0 min 0 W/m 3,1 C 3,8 C 4,8 km/h (1 Bft)
26.12.2019 19:03 3,8 C 95 % 1021,5 hPa 0,0 l/m 2,1 km/h (1 Bft) W-SW 252 0 min 0 W/m 3,1 C 3,8 C 4,8 km/h (1 Bft)
26.12.2019 19:06 3,8 C 95 % 1021,5 hPa 0,0 l/m 1,5 km/h (1 Bft) W-SW 252 0 min 0 W/m 3,1 C 3,8 C 3,2 km/h (1 Bft)
26.12.2019 19:09 3,8 C 95 % 1021,5 hPa 0,0 l/m 1,1 km/h (1 Bft) W-SW 252 0 min 0 W/m 3,1 C 3,8 C 3,2 km/h (1 Bft)
26.12.2019 19:12 3,8 C 95 % 1021,6 hPa 0,0 l/m 0,4 km/h (0 Bft) W-SW 252 0 min 0 W/m 3,1 C 3,8 C 1,6 km/h (1 Bft)
26.12.2019 19:15 3,8 C 95 % 1021,5 hPa 0,0 l/m 0,6 km/h (0 Bft) W-SW 252 0 min 0 W/m 3,1 C 3,8 C 3,2 km/h (1 Bft)
26.12.2019 19:18 3,8 C 95 % 1021,5 hPa 0,0 l/m 1,7 km/h (1 Bft) W-SW 252 0 min 0 W/m 3,1 C 3,8 C 3,2 km/h (1 Bft)
26.12.2019 19:21 3,9 C 95 % 1021,6 hPa 0,0 l/m 1,8 km/h (1 Bft) W-SW 252 0 min 0 W/m 3,2 C 3,9 C 3,2 km/h (1 Bft)
26.12.2019 19:24 3,9 C 95 % 1021,5 hPa 0,0 l/m 0,7 km/h (0 Bft) W-SW 252 0 min 0 W/m 3,2 C 3,9 C 1,6 km/h (1 Bft)
26.12.2019 19:27 3,9 C 95 % 1021,5 hPa 0,0 l/m 0,7 km/h (0 Bft) W-SW 252 0 min 0 W/m 3,2 C 3,9 C 3,2 km/h (1 Bft)
26.12.2019 19:30 3,9 C 95 % 1021,5 hPa 0,0 l/m 0,2 km/h (0 Bft) W-SW 252 0 min 0 W/m 3,2 C 3,9 C 1,6 km/h (1 Bft)
26.12.2019 19:33 3,9 C 95 % 1021,6 hPa 0,0 l/m 0,4 km/h (0 Bft) W-SW 252 0 min 0 W/m 3,2 C 3,9 C 1,6 km/h (1 Bft)
26.12.2019 19:36 3,9 C 95 % 1021,6 hPa 0,0 l/m 0,3 km/h (0 Bft) W-SW 252 0 min 0 W/m 3,2 C 3,9 C 1,6 km/h (1 Bft)
26.12.2019 19:39 3,9 C 95 % 1021,6 hPa 0,0 l/m 0,2 km/h (0 Bft) W-SW 252 0 min 0 W/m 3,2 C 3,9 C 1,6 km/h (1 Bft)
26.12.2019 19:42 3,9 C 95 % 1021,6 hPa 0,0 l/m 1,7 km/h (1 Bft) W-SW 252 0 min 0 W/m 3,2 C 3,9 C 3,2 km/h (1 Bft)
26.12.2019 19:45 4,0 C 95 % 1021,6 hPa 0,0 l/m 2,5 km/h (1 Bft) W-SW 252 0 min 0 W/m 3,3 C 4,0 C 3,2 km/h (1 Bft)
26.12.2019 19:48 4,0 C 95 % 1021,6 hPa 0,0 l/m 3,0 km/h (1 Bft) W-SW 252 0 min 0 W/m 3,3 C 4,0 C 4,8 km/h (1 Bft)
26.12.2019 19:51 4,1 C 95 % 1021,6 hPa 0,0 l/m 3,6 km/h (1 Bft) W-SW 252 0 min 0 W/m 3,4 C 4,1 C 6,4 km/h (2 Bft)
26.12.2019 19:54 4,1 C 95 % 1021,7 hPa 0,0 l/m 2,4 km/h (1 Bft) W-SW 252 0 min 0 W/m 3,4 C 4,1 C 3,2 km/h (1 Bft)
26.12.2019 19:57 4,1 C 95 % 1021,7 hPa 0,0 l/m 1,1 km/h (1 Bft) W-SW 252 0 min 0 W/m 3,4 C 4,1 C 3,2 km/h (1 Bft)
26.12.2019 20:00 4,2 C 96 % 1021,7 hPa 0,0 l/m 0,5 km/h (0 Bft) W-SW 252 0 min 0 W/m 3,6 C 4,2 C 1,6 km/h (1 Bft)
26.12.2019 20:03 4,2 C 96 % 1021,7 hPa 0,0 l/m 0,8 km/h (0 Bft) W-SW 252 0 min 0 W/m 3,6 C 4,2 C 3,2 km/h (1 Bft)
26.12.2019 20:06 4,2 C 96 % 1021,7 hPa 0,0 l/m 1,2 km/h (1 Bft) W-SW 252 0 min 0 W/m 3,6 C 4,2 C 1,6 km/h (1 Bft)
26.12.2019 20:09 4,2 C 96 % 1021,7 hPa 0,0 l/m 0,4 km/h (0 Bft) W-SW 252 0 min 0 W/m 3,6 C 4,2 C 1,6 km/h (1 Bft)
26.12.2019 20:12 4,2 C 96 % 1021,7 hPa 0,0 l/m 0,0 km/h (0 Bft) W-SW 252 0 min 0 W/m 3,6 C 4,2 C 1,6 km/h (1 Bft)
26.12.2019 20:15 4,2 C 96 % 1021,7 hPa 0,0 l/m 0,1 km/h (0 Bft) W-SW 252 0 min 0 W/m 3,6 C 4,2 C 1,6 km/h (1 Bft)
26.12.2019 20:18 4,2 C 96 % 1021,7 hPa 0,0 l/m 0,6 km/h (0 Bft) W-SW 252 0 min 0 W/m 3,6 C 4,2 C 1,6 km/h (1 Bft)
26.12.2019 20:21 4,3 C 96 % 1021,7 hPa 0,0 l/m 0,4 km/h (0 Bft) W-SW 252 0 min 0 W/m 3,7 C 4,3 C 1,6 km/h (1 Bft)
26.12.2019 20:24 4,3 C 96 % 1021,7 hPa 0,0 l/m 0,0 km/h (0 Bft) W-SW 252 0 min 0 W/m 3,7 C 4,3 C 0,0 km/h (0 Bft)
26.12.2019 20:27 4,3 C 96 % 1021,7 hPa 0,0 l/m 0,1 km/h (0 Bft) W-SW 252 0 min 0 W/m 3,7 C 4,3 C 1,6 km/h (1 Bft)
26.12.2019 20:30 4,3 C 96 % 1021,7 hPa 0,0 l/m 0,1 km/h (0 Bft) W-SW 252 0 min 0 W/m 3,7 C 4,3 C 1,6 km/h (1 Bft)
26.12.2019 20:33 4,3 C 96 % 1021,7 hPa 0,0 l/m 0,7 km/h (0 Bft) W-SW 252 0 min 0 W/m 3,7 C 4,3 C 1,6 km/h (1 Bft)
26.12.2019 20:36 4,3 C 96 % 1021,6 hPa 0,0 l/m 0,5 km/h (0 Bft) W-SW 252 0 min 0 W/m 3,7 C 4,3 C 1,6 km/h (1 Bft)
26.12.2019 20:39 4,3 C 96 % 1021,7 hPa 0,0 l/m 0,4 km/h (0 Bft) W-SW 252 0 min 0 W/m 3,7 C 4,3 C 1,6 km/h (1 Bft)
26.12.2019 20:42 4,2 C 96 % 1021,6 hPa 0,0 l/m 0,2 km/h (0 Bft) W-SW 252 0 min 0 W/m 3,6 C 4,2 C 1,6 km/h (1 Bft)
26.12.2019 20:45 4,2 C 96 % 1021,7 hPa 0,0 l/m 0,0 km/h (0 Bft) W-SW 252 0 min 0 W/m 3,6 C 4,2 C 0,0 km/h (0 Bft)
26.12.2019 20:48 4,2 C 96 % 1021,7 hPa 0,0 l/m 0,3 km/h (0 Bft) W-SW 252 0 min 0 W/m 3,6 C 4,2 C 1,6 km/h (1 Bft)
26.12.2019 20:51 4,2 C 96 % 1021,6 hPa 0,0 l/m 0,0 km/h (0 Bft) W-SW 252 0 min 0 W/m 3,6 C 4,2 C 0,0 km/h (0 Bft)
26.12.2019 20:54 4,2 C 96 % 1021,6 hPa 0,0 l/m 0,0 km/h (0 Bft) W-SW 252 0 min 0 W/m 3,6 C 4,2 C 0,0 km/h (0 Bft)
26.12.2019 20:57 4,2 C 96 % 1021,7 hPa 0,0 l/m 0,0 km/h (0 Bft) W-SW 252 0 min 0 W/m 3,6 C 4,2 C 0,0 km/h (0 Bft)
26.12.2019 21:00 4,2 C 96 % 1021,6 hPa 0,0 l/m 0,1 km/h (0 Bft) W-SW 252 0 min 0 W/m 3,6 C 4,2 C 1,6 km/h (1 Bft)
26.12.2019 21:03 4,1 C 96 % 1021,5 hPa 0,0 l/m 0,1 km/h (0 Bft) W-SW 252 0 min 0 W/m 3,5 C 4,1 C 1,6 km/h (1 Bft)
26.12.2019 21:06 4,2 C 96 % 1021,5 hPa 0,0 l/m 0,0 km/h (0 Bft) W-SW 252 0 min 0 W/m 3,6 C 4,2 C 1,6 km/h (1 Bft)
26.12.2019 21:09 4,1 C 95 % 1021,5 hPa 0,0 l/m 0,0 km/h (0 Bft) W-SW 252 0 min 0 W/m 3,4 C 4,1 C 1,6 km/h (1 Bft)
26.12.2019 21:12 4,1 C 95 % 1021,5 hPa 0,0 l/m 0,1 km/h (0 Bft) W-SW 252 0 min 0 W/m 3,4 C 4,1 C 1,6 km/h (1 Bft)
26.12.2019 21:15 4,1 C 95 % 1021,5 hPa 0,0 l/m 0,1 km/h (0 Bft) W-SW 252 0 min 0 W/m 3,4 C 4,1 C 1,6 km/h (1 Bft)
26.12.2019 21:18 4,1 C 95 % 1021,5 hPa 0,0 l/m 0,4 km/h (0 Bft) W-SW 252 0 min 0 W/m 3,4 C 4,1 C 1,6 km/h (1 Bft)
26.12.2019 21:21 4,1 C 95 % 1021,5 hPa 0,0 l/m 0,8 km/h (0 Bft) W-SW 252 0 min 0 W/m 3,4 C 4,1 C 1,6 km/h (1 Bft)
26.12.2019 21:24 4,0 C 95 % 1021,5 hPa 0,0 l/m 0,9 km/h (0 Bft) W-SW 252 0 min 0 W/m 3,3 C 4,0 C 1,6 km/h (1 Bft)
26.12.2019 21:27 4,0 C 95 % 1021,5 hPa 0,0 l/m 0,2 km/h (0 Bft) W-SW 252 0 min 0 W/m 3,3 C 4,0 C 1,6 km/h (1 Bft)
26.12.2019 21:30 3,9 C 95 % 1021,5 hPa 0,0 l/m 0,7 km/h (0 Bft) W-SW 252 0 min 0 W/m 3,2 C 3,9 C 1,6 km/h (1 Bft)
26.12.2019 21:33 3,8 C 95 % 1021,5 hPa 0,0 l/m 0,2 km/h (0 Bft) W-SW 252 0 min 0 W/m 3,1 C 3,8 C 1,6 km/h (1 Bft)
26.12.2019 21:36 3,8 C 95 % 1021,4 hPa 0,0 l/m 0,2 km/h (0 Bft) W-SW 252 0 min 0 W/m 3,1 C 3,8 C 1,6 km/h (1 Bft)
26.12.2019 21:39 3,7 C 95 % 1021,4 hPa 0,0 l/m 0,0 km/h (0 Bft) W-SW 252 0 min 0 W/m 3,0 C 3,7 C 0,0 km/h (0 Bft)
26.12.2019 21:42 3,7 C 95 % 1021,5 hPa 0,0 l/m 0,0 km/h (0 Bft) W-SW 252 0 min 0 W/m 3,0 C 3,7 C 0,0 km/h (0 Bft)
26.12.2019 21:45 3,7 C 95 % 1021,4 hPa 0,0 l/m 0,0 km/h (0 Bft) W-SW 252 0 min 0 W/m 3,0 C 3,7 C 0,0 km/h (0 Bft)
26.12.2019 21:48 3,7 C 95 % 1021,5 hPa 0,0 l/m 0,0 km/h (0 Bft) W-SW 252 0 min 0 W/m 3,0 C 3,7 C 0,0 km/h (0 Bft)
26.12.2019 21:51 3,6 C 95 % 1021,4 hPa 0,0 l/m 0,0 km/h (0 Bft) W-SW 252 0 min 0 W/m 2,9 C 3,6 C 0,0 km/h (0 Bft)
26.12.2019 21:54 3,6 C 95 % 1021,4 hPa 0,0 l/m 0,0 km/h (0 Bft) W-SW 252 0 min 0 W/m 2,9 C 3,6 C 0,0 km/h (0 Bft)
26.12.2019 21:57 3,5 C 95 % 1021,4 hPa 0,0 l/m 0,0 km/h (0 Bft) W-SW 252 0 min 0 W/m 2,8 C 3,5 C 0,0 km/h (0 Bft)
26.12.2019 22:00 3,4 C 95 % 1021,5 hPa 0,0 l/m 0,0 km/h (0 Bft) W-SW 252 0 min 0 W/m 2,7 C 3,4 C 0,0 km/h (0 Bft)
26.12.2019 22:03 3,3 C 95 % 1021,5 hPa 0,0 l/m 0,0 km/h (0 Bft) W-SW 252 0 min 0 W/m 2,6 C 3,3 C 0,0 km/h (0 Bft)
26.12.2019 22:06 3,3 C 95 % 1021,5 hPa 0,0 l/m 0,0 km/h (0 Bft) W-SW 252 0 min 0 W/m 2,6 C 3,3 C 1,6 km/h (1 Bft)
26.12.2019 22:09 3,2 C 95 % 1021,5 hPa 0,0 l/m 0,0 km/h (0 Bft) W-SW 252 0 min 0 W/m 2,5 C 3,2 C 0,0 km/h (0 Bft)
26.12.2019 22:12 3,1 C 95 % 1021,5 hPa 0,0 l/m 0,0 km/h (0 Bft) W-SW 252 0 min 0 W/m 2,4 C 3,1 C 0,0 km/h (0 Bft)
26.12.2019 22:15 3,1 C 95 % 1021,5 hPa 0,0 l/m 0,0 km/h (0 Bft) W-SW 252 0 min 0 W/m 2,4 C 3,1 C 0,0 km/h (0 Bft)
26.12.2019 22:18 3,0 C 95 % 1021,5 hPa 0,0 l/m 0,0 km/h (0 Bft) W-SW 252 0 min 0 W/m 2,3 C 3,0 C 0,0 km/h (0 Bft)
26.12.2019 22:21 2,9 C 95 % 1021,6 hPa 0,0 l/m 0,0 km/h (0 Bft) W-SW 252 0 min 0 W/m 2,2 C 2,9 C 0,0 km/h (0 Bft)
26.12.2019 22:24 2,9 C 95 % 1021,6 hPa 0,0 l/m 0,0 km/h (0 Bft) W-SW 252 0 min 0 W/m 2,2 C 2,9 C 0,0 km/h (0 Bft)
26.12.2019 22:27 2,8 C 95 % 1021,6 hPa 0,0 l/m 0,0 km/h (0 Bft) W-SW 252 0 min 0 W/m 2,1 C 2,8 C 0,0 km/h (0 Bft)
26.12.2019 22:30 2,8 C 95 % 1021,6 hPa 0,0 l/m 0,0 km/h (0 Bft) W-SW 252 0 min 0 W/m 2,1 C 2,8 C 0,0 km/h (0 Bft)
26.12.2019 22:33 2,7 C 95 % 1021,7 hPa 0,0 l/m 0,0 km/h (0 Bft) W-SW 252 0 min 0 W/m 2,0 C 2,7 C 0,0 km/h (0 Bft)
26.12.2019 22:36 2,6 C 95 % 1021,7 hPa 0,0 l/m 0,0 km/h (0 Bft) W-SW 252 0 min 0 W/m 1,9 C 2,6 C 0,0 km/h (0 Bft)
26.12.2019 22:39 2,6 C 95 % 1021,7 hPa 0,0 l/m 0,0 km/h (0 Bft) W-SW 252 0 min 0 W/m 1,9 C 2,6 C 0,0 km/h (0 Bft)
26.12.2019 22:42 2,4 C 95 % 1021,7 hPa 0,0 l/m 0,0 km/h (0 Bft) W-SW 252 0 min 0 W/m 1,7 C 2,4 C 0,0 km/h (0 Bft)
26.12.2019 22:45 2,4 C 95 % 1021,7 hPa 0,0 l/m 0,0 km/h (0 Bft) W-SW 252 0 min 0 W/m 1,7 C 2,4 C 0,0 km/h (0 Bft)
26.12.2019 22:48 2,3 C 95 % 1021,7 hPa 0,0 l/m 0,0 km/h (0 Bft) W-SW 252 0 min 0 W/m 1,6 C 2,3 C 0,0 km/h (0 Bft)
26.12.2019 22:51 2,3 C 95 % 1021,7 hPa 0,0 l/m 0,0 km/h (0 Bft) W-SW 252 0 min 0 W/m 1,6 C 2,3 C 0,0 km/h (0 Bft)
26.12.2019 22:54 2,2 C 95 % 1021,7 hPa 0,0 l/m 0,0 km/h (0 Bft) W-SW 252 0 min 0 W/m 1,5 C 2,2 C 0,0 km/h (0 Bft)
26.12.2019 22:57 2,1 C 95 % 1021,8 hPa 0,0 l/m 0,0 km/h (0 Bft) W-SW 252 0 min 0 W/m 1,4 C 2,1 C 0,0 km/h (0 Bft)
26.12.2019 23:00 2,0 C 95 % 1021,8 hPa 0,0 l/m 0,0 km/h (0 Bft) W-SW 252 0 min 0 W/m 1,3 C 2,0 C 0,0 km/h (0 Bft)
26.12.2019 23:03 1,9 C 95 % 1021,9 hPa 0,0 l/m 1,8 km/h (1 Bft) W-SW 252 0 min 0 W/m 1,2 C 1,9 C 4,8 km/h (1 Bft)
26.12.2019 23:06 1,8 C 95 % 1021,9 hPa 0,0 l/m 0,9 km/h (0 Bft) W-SW 252 0 min 0 W/m 1,1 C 1,8 C 3,2 km/h (1 Bft)
26.12.2019 23:09 1,8 C 95 % 1022,0 hPa 0,0 l/m 1,1 km/h (1 Bft) W-SW 252 0 min 0 W/m 1,1 C 1,8 C 3,2 km/h (1 Bft)
26.12.2019 23:12 1,7 C 95 % 1022,1 hPa 0,0 l/m 0,6 km/h (0 Bft) W-SW 252 0 min 0 W/m 1,0 C 1,7 C 1,6 km/h (1 Bft)
26.12.2019 23:15 1,7 C 95 % 1022,1 hPa 0,0 l/m 0,7 km/h (0 Bft) W-SW 252 0 min 0 W/m 1,0 C 1,7 C 1,6 km/h (1 Bft)
26.12.2019 23:18 1,6 C 95 % 1022,1 hPa 0,0 l/m 0,2 km/h (0 Bft) W-SW 252 0 min 0 W/m 0,9 C 1,6 C 1,6 km/h (1 Bft)
26.12.2019 23:21 1,6 C 95 % 1022,1 hPa 0,0 l/m 0,4 km/h (0 Bft) W-SW 252 0 min 0 W/m 0,9 C 1,6 C 1,6 km/h (1 Bft)
26.12.2019 23:24 1,6 C 95 % 1022,1 hPa 0,0 l/m 0,0 km/h (0 Bft) W-SW 252 0 min 0 W/m 0,9 C 1,6 C 1,6 km/h (1 Bft)
26.12.2019 23:27 1,6 C 95 % 1022,1 hPa 0,0 l/m 0,4 km/h (0 Bft) W-SW 252 0 min 0 W/m 0,9 C 1,6 C 1,6 km/h (1 Bft)
26.12.2019 23:30 1,6 C 95 % 1022,1 hPa 0,0 l/m 0,3 km/h (0 Bft) W-SW 252 0 min 0 W/m 0,9 C 1,6 C 1,6 km/h (1 Bft)
26.12.2019 23:33 1,6 C 95 % 1022,1 hPa 0,0 l/m 0,2 km/h (0 Bft) W-SW 252 0 min 0 W/m 0,9 C 1,6 C 1,6 km/h (1 Bft)
26.12.2019 23:36 1,5 C 95 % 1022,1 hPa 0,0 l/m 0,3 km/h (0 Bft) W-SW 252 0 min 0 W/m 0,8 C 1,5 C 3,2 km/h (1 Bft)
26.12.2019 23:39 1,5 C 95 % 1022,2 hPa 0,0 l/m 0,0 km/h (0 Bft) W-SW 252 0 min 0 W/m 0,8 C 1,5 C 0,0 km/h (0 Bft)
26.12.2019 23:42 1,5 C 95 % 1022,1 hPa 0,0 l/m 0,2 km/h (0 Bft) W-SW 252 0 min 0 W/m 0,8 C 1,5 C 1,6 km/h (1 Bft)
26.12.2019 23:45 1,5 C 95 % 1022,1 hPa 0,0 l/m 0,0 km/h (0 Bft) W-SW 252 0 min 0 W/m 0,8 C 1,5 C 0,0 km/h (0 Bft)
26.12.2019 23:48 1,5 C 95 % 1022,1 hPa 0,0 l/m 0,0 km/h (0 Bft) W-SW 252 0 min 0 W/m 0,8 C 1,5 C 1,6 km/h (1 Bft)
26.12.2019 23:51 1,5 C 95 % 1022,0 hPa 0,0 l/m 0,3 km/h (0 Bft) W-SW 252 0 min 0 W/m 0,8 C 1,5 C 1,6 km/h (1 Bft)
26.12.2019 23:54 1,5 C 95 % 1022,1 hPa 0,0 l/m 0,8 km/h (0 Bft) W-SW 252 0 min 0 W/m 0,8 C 1,5 C 1,6 km/h (1 Bft)
26.12.2019 23:57 1,5 C 95 % 1022,1 hPa 0,0 l/m 0,0 km/h (0 Bft) W-SW 252 0 min 0 W/m 0,8 C 1,5 C 1,6 km/h (1 Bft)
_ Min-Zeit 23:57 01:24 00:00 - 17:03 - - - - 23:36 23:36 17:03
Minimum _ 1,4 C 94 % 1021,0 hPa - 0,0 km/h (0 Bft) - - - - 0,8 C 1,5 C 0,0 km/h (0 Bft)
_ Max-Zeit 00:09 09:57 10:27 01:15 02:09 - - 12:18 12:30 00:12 01:12 00:45
Maximum _ 6,8 C 96 % 1022,2 hPa 0,2 l/m 12,9 km/h
W (3 Bft)
- - 3 min 193 W/m 6,1 C 6,8 C 19,3 km/h
W (3 Bft)
Durchschnitt _ 5,1 C 95 % 1021,5 hPa #1,8 l/m 4,5 km/h (1 Bft) W-SW - #12 min. 35 W/m 4,4 C 4,7 C 8,2 km/h (2 Bft)
2019 Cux-Wetter.de -Die Nutzung der Wetterdaten nur mit ausdrcklicher Genehmigung